<?xml version="1.0" encoding="UTF-8" standalone="no" ?>
<gpx xmlns="http://www.topografix.com/GPX/1/1" xmlns:xsi="http://www.w3.org/2001/XMLSchema-instance" xsi:schemaLocation="http://www.topografix.com/GPX/1/1 http://www.topografix.com/GPX/1/1/gpx.xsd" version="1.1" creator="VisuGPX - https://www.visugpx.com">
  <metadata>
    <name>SC 1605g1 65km</name>
  </metadata>
  <trk>
    <name><![CDATA[SC 1605g2 70km]]></name>
    <trkseg>
      <trkpt lat="50.50364" lon="3.46059">
        <ele>19.569234</ele>
        <time>2021-05-13T18:43:17.209Z</time>
      </trkpt>
      <trkpt lat="50.5041" lon="3.45851">
        <ele>19.454898</ele>
        <time>2021-05-13T18:43:37.488Z</time>
      </trkpt>
      <trkpt lat="50.50424" lon="3.45772">
        <ele>19.335587</ele>
        <time>2021-05-13T18:43:44.838Z</time>
      </trkpt>
      <trkpt lat="50.50433" lon="3.4572">
        <ele>19.256551</ele>
        <time>2021-05-13T18:43:49.659Z</time>
      </trkpt>
      <trkpt lat="50.50436" lon="3.45642">
        <ele>19.126826</ele>
        <time>2021-05-13T18:43:56.547Z</time>
      </trkpt>
      <trkpt lat="50.50437" lon="3.45631">
        <ele>19.091542</ele>
        <time>2021-05-13T18:43:57.385Z</time>
      </trkpt>
      <trkpt lat="50.5044" lon="3.45588">
        <ele>18.952024</ele>
        <time>2021-05-13T18:44:01.345Z</time>
      </trkpt>
      <trkpt lat="50.50441" lon="3.45573">
        <ele>18.90287</ele>
        <time>2021-05-13T18:44:02.539Z</time>
      </trkpt>
      <trkpt lat="50.50441" lon="3.45568">
        <ele>18.886447</ele>
        <time>2021-05-13T18:44:02.983Z</time>
      </trkpt>
      <trkpt lat="50.50443" lon="3.45552">
        <ele>18.834205</ele>
        <time>2021-05-13T18:44:04.414Z</time>
      </trkpt>
      <trkpt lat="50.50448" lon="3.45508">
        <ele>18.693335</ele>
        <time>2021-05-13T18:44:07.965Z</time>
      </trkpt>
      <trkpt lat="50.50447" lon="3.4549">
        <ele>18.633999</ele>
        <time>2021-05-13T18:44:09.551Z</time>
      </trkpt>
      <trkpt lat="50.50444" lon="3.45482">
        <ele>18.603714</ele>
        <time>2021-05-13T18:44:10.355Z</time>
      </trkpt>
      <trkpt lat="50.50416" lon="3.45464">
        <ele>18.454057</ele>
        <time>2021-05-13T18:44:14.231Z</time>
      </trkpt>
      <trkpt lat="50.50407" lon="3.45459">
        <ele>18.403878</ele>
        <time>2021-05-13T18:44:15.560Z</time>
      </trkpt>
      <trkpt lat="50.50355" lon="3.45425">
        <ele>18.119885</ele>
        <time>2021-05-13T18:44:23.042Z</time>
      </trkpt>
      <trkpt lat="50.50341" lon="3.45413">
        <ele>18.038012</ele>
        <time>2021-05-13T18:44:25.219Z</time>
      </trkpt>
      <trkpt lat="50.5031" lon="3.45386">
        <ele>17.856683</ele>
        <time>2021-05-13T18:44:29.879Z</time>
      </trkpt>
      <trkpt lat="50.50229" lon="3.45322">
        <ele>17.391537</ele>
        <time>2021-05-13T18:44:41.322Z</time>
      </trkpt>
      <trkpt lat="50.50193" lon="3.45294">
        <ele>17.360096</ele>
        <time>2021-05-13T18:44:47.333Z</time>
      </trkpt>
      <trkpt lat="50.50142" lon="3.45258">
        <ele>17.411926</ele>
        <time>2021-05-13T18:44:56.616Z</time>
      </trkpt>
      <trkpt lat="50.5013" lon="3.45249">
        <ele>17.424129</ele>
        <time>2021-05-13T18:44:58.633Z</time>
      </trkpt>
      <trkpt lat="50.50092" lon="3.45227">
        <ele>17.461178</ele>
        <time>2021-05-13T18:45:05.141Z</time>
      </trkpt>
      <trkpt lat="50.50084" lon="3.45223">
        <ele>17.468999</ele>
        <time>2021-05-13T18:45:06.460Z</time>
      </trkpt>
      <trkpt lat="50.50052" lon="3.45203">
        <ele>17.496839</ele>
        <time>2021-05-13T18:45:11.452Z</time>
      </trkpt>
      <trkpt lat="50.50051" lon="3.45202">
        <ele>17.4906</ele>
        <time>2021-05-13T18:45:11.700Z</time>
      </trkpt>
      <trkpt lat="50.50044" lon="3.45199">
        <ele>17.464223</ele>
        <time>2021-05-13T18:45:12.725Z</time>
      </trkpt>
      <trkpt lat="50.50005" lon="3.45189">
        <ele>17.315478</ele>
        <time>2021-05-13T18:45:18.337Z</time>
      </trkpt>
      <trkpt lat="50.49999" lon="3.45188">
        <ele>17.291575</ele>
        <time>2021-05-13T18:45:19.205Z</time>
      </trkpt>
      <trkpt lat="50.49974" lon="3.45177">
        <ele>17.19745</ele>
        <time>2021-05-13T18:45:22.995Z</time>
      </trkpt>
      <trkpt lat="50.49958" lon="3.45159">
        <ele>17.122228</ele>
        <time>2021-05-13T18:45:25.807Z</time>
      </trkpt>
      <trkpt lat="50.49943" lon="3.45125">
        <ele>17.02433</ele>
        <time>2021-05-13T18:45:29.459Z</time>
      </trkpt>
      <trkpt lat="50.49935" lon="3.45106">
        <ele>16.968234</ele>
        <time>2021-05-13T18:45:31.435Z</time>
      </trkpt>
      <trkpt lat="50.49874" lon="3.44964">
        <ele>16.319408</ele>
        <time>2021-05-13T18:45:44.670Z</time>
      </trkpt>
      <trkpt lat="50.49867" lon="3.44946">
        <ele>16.222376</ele>
        <time>2021-05-13T18:45:46.273Z</time>
      </trkpt>
      <trkpt lat="50.49864" lon="3.44939">
        <ele>16.184252</ele>
        <time>2021-05-13T18:45:46.915Z</time>
      </trkpt>
      <trkpt lat="50.49851" lon="3.44909">
        <ele>16.019452</ele>
        <time>2021-05-13T18:45:49.808Z</time>
      </trkpt>
      <trkpt lat="50.49844" lon="3.44889">
        <ele>15.911435</ele>
        <time>2021-05-13T18:45:51.700Z</time>
      </trkpt>
      <trkpt lat="50.49799" lon="3.44762">
        <ele>15.741121</ele>
        <time>2021-05-13T18:46:04.730Z</time>
      </trkpt>
      <trkpt lat="50.49798" lon="3.44759">
        <ele>15.751765</ele>
        <time>2021-05-13T18:46:04.974Z</time>
      </trkpt>
      <trkpt lat="50.49776" lon="3.4469">
        <ele>16.008614</ele>
        <time>2021-05-13T18:46:12.969Z</time>
      </trkpt>
      <trkpt lat="50.49754" lon="3.44626">
        <ele>16.249452</ele>
        <time>2021-05-13T18:46:20.709Z</time>
      </trkpt>
      <trkpt lat="50.49735" lon="3.44569">
        <ele>16.463053</ele>
        <time>2021-05-13T18:46:28.860Z</time>
      </trkpt>
      <trkpt lat="50.49687" lon="3.44433">
        <ele>18.126291</ele>
        <time>2021-05-13T18:46:50.607Z</time>
      </trkpt>
      <trkpt lat="50.49674" lon="3.44405">
        <ele>18.500829</ele>
        <time>2021-05-13T18:46:55.817Z</time>
      </trkpt>
      <trkpt lat="50.49672" lon="3.44401">
        <ele>18.555234</ele>
        <time>2021-05-13T18:46:56.737Z</time>
      </trkpt>
      <trkpt lat="50.49669" lon="3.44396">
        <ele>18.631912</ele>
        <time>2021-05-13T18:46:57.574Z</time>
      </trkpt>
      <trkpt lat="50.49663" lon="3.44393">
        <ele>18.733705</ele>
        <time>2021-05-13T18:46:58.704Z</time>
      </trkpt>
      <trkpt lat="50.49657" lon="3.44381">
        <ele>18.902705</ele>
        <time>2021-05-13T18:47:01.485Z</time>
      </trkpt>
      <trkpt lat="50.49606" lon="3.44327">
        <ele>19.714381</ele>
        <time>2021-05-13T18:47:13.875Z</time>
      </trkpt>
      <trkpt lat="50.49601" lon="3.44316">
        <ele>19.778106</ele>
        <time>2021-05-13T18:47:16.202Z</time>
      </trkpt>
      <trkpt lat="50.496" lon="3.44307">
        <ele>19.822538</ele>
        <time>2021-05-13T18:47:17.292Z</time>
      </trkpt>
      <trkpt lat="50.49602" lon="3.44292">
        <ele>19.897978</ele>
        <time>2021-05-13T18:47:18.994Z</time>
      </trkpt>
      <trkpt lat="50.49617" lon="3.4426">
        <ele>20.090769</ele>
        <time>2021-05-13T18:47:24.381Z</time>
      </trkpt>
      <trkpt lat="50.49629" lon="3.44231">
        <ele>20.259984</ele>
        <time>2021-05-13T18:47:28.194Z</time>
      </trkpt>
      <trkpt lat="50.49645" lon="3.44201">
        <ele>20.450102</ele>
        <time>2021-05-13T18:47:32.947Z</time>
      </trkpt>
      <trkpt lat="50.49648" lon="3.44196">
        <ele>20.485608</ele>
        <time>2021-05-13T18:47:33.564Z</time>
      </trkpt>
      <trkpt lat="50.49685" lon="3.44131">
        <ele>20.91322</ele>
        <time>2021-05-13T18:47:41.904Z</time>
      </trkpt>
      <trkpt lat="50.49705" lon="3.44106">
        <ele>20.800495</ele>
        <time>2021-05-13T18:47:45.210Z</time>
      </trkpt>
      <trkpt lat="50.49744" lon="3.44059">
        <ele>20.584372</ele>
        <time>2021-05-13T18:47:51.484Z</time>
      </trkpt>
      <trkpt lat="50.49763" lon="3.44038">
        <ele>20.481576</ele>
        <time>2021-05-13T18:47:54.482Z</time>
      </trkpt>
      <trkpt lat="50.49781" lon="3.4402">
        <ele>20.388643</ele>
        <time>2021-05-13T18:47:57.310Z</time>
      </trkpt>
      <trkpt lat="50.4985" lon="3.43976">
        <ele>20.116707</ele>
        <time>2021-05-13T18:48:07.406Z</time>
      </trkpt>
      <trkpt lat="50.49875" lon="3.43953">
        <ele>20.102345</ele>
        <time>2021-05-13T18:48:11.687Z</time>
      </trkpt>
      <trkpt lat="50.49908" lon="3.43909">
        <ele>20.081059</ele>
        <time>2021-05-13T18:48:17.859Z</time>
      </trkpt>
      <trkpt lat="50.49932" lon="3.43869">
        <ele>20.063243</ele>
        <time>2021-05-13T18:48:23.206Z</time>
      </trkpt>
      <trkpt lat="50.49959" lon="3.43822">
        <ele>20.043336</ele>
        <time>2021-05-13T18:48:29.160Z</time>
      </trkpt>
      <trkpt lat="50.49968" lon="3.4381">
        <ele>20.03739</ele>
        <time>2021-05-13T18:48:31.120Z</time>
      </trkpt>
      <trkpt lat="50.50021" lon="3.43737">
        <ele>20.063533</ele>
        <time>2021-05-13T18:48:41.613Z</time>
      </trkpt>
      <trkpt lat="50.50051" lon="3.43694">
        <ele>20.082455</ele>
        <time>2021-05-13T18:48:47.966Z</time>
      </trkpt>
      <trkpt lat="50.50074" lon="3.43662">
        <ele>20.096527</ele>
        <time>2021-05-13T18:48:52.646Z</time>
      </trkpt>
      <trkpt lat="50.50098" lon="3.43629">
        <ele>20.11117</ele>
        <time>2021-05-13T18:48:57.168Z</time>
      </trkpt>
      <trkpt lat="50.50185" lon="3.43497">
        <ele>20.106944</ele>
        <time>2021-05-13T18:49:15.215Z</time>
      </trkpt>
      <trkpt lat="50.50325" lon="3.43292">
        <ele>19.821479</ele>
        <time>2021-05-13T18:49:43.557Z</time>
      </trkpt>
      <trkpt lat="50.5036" lon="3.43218">
        <ele>19.685386</ele>
        <time>2021-05-13T18:49:51.184Z</time>
      </trkpt>
      <trkpt lat="50.50361" lon="3.43212">
        <ele>19.661815</ele>
        <time>2021-05-13T18:49:51.698Z</time>
      </trkpt>
      <trkpt lat="50.50363" lon="3.43211">
        <ele>19.648093</ele>
        <time>2021-05-13T18:49:51.934Z</time>
      </trkpt>
      <trkpt lat="50.50366" lon="3.43201">
        <ele>19.595709</ele>
        <time>2021-05-13T18:49:52.831Z</time>
      </trkpt>
      <trkpt lat="50.50365" lon="3.43199">
        <ele>19.581794</ele>
        <time>2021-05-13T18:49:53.068Z</time>
      </trkpt>
      <trkpt lat="50.50369" lon="3.43196">
        <ele>19.555972</ele>
        <time>2021-05-13T18:49:53.480Z</time>
      </trkpt>
      <trkpt lat="50.50376" lon="3.43191">
        <ele>19.490866</ele>
        <time>2021-05-13T18:49:54.589Z</time>
      </trkpt>
      <trkpt lat="50.50385" lon="3.43181">
        <ele>19.406841</ele>
        <time>2021-05-13T18:49:55.959Z</time>
      </trkpt>
      <trkpt lat="50.50406" lon="3.43154">
        <ele>19.203202</ele>
        <time>2021-05-13T18:49:59.310Z</time>
      </trkpt>
      <trkpt lat="50.50469" lon="3.43071">
        <ele>18.575964</ele>
        <time>2021-05-13T18:50:09.364Z</time>
      </trkpt>
      <trkpt lat="50.50517" lon="3.43003">
        <ele>18.351794</ele>
        <time>2021-05-13T18:50:17.875Z</time>
      </trkpt>
      <trkpt lat="50.50523" lon="3.42993">
        <ele>18.366352</ele>
        <time>2021-05-13T18:50:18.972Z</time>
      </trkpt>
      <trkpt lat="50.50529" lon="3.42984">
        <ele>18.379512</ele>
        <time>2021-05-13T18:50:20.129Z</time>
      </trkpt>
      <trkpt lat="50.50538" lon="3.42968">
        <ele>18.401535</ele>
        <time>2021-05-13T18:50:22.326Z</time>
      </trkpt>
      <trkpt lat="50.50633" lon="3.42818">
        <ele>18.677321</ele>
        <time>2021-05-13T18:50:44.629Z</time>
      </trkpt>
      <trkpt lat="50.50652" lon="3.4279">
        <ele>18.826589</ele>
        <time>2021-05-13T18:50:49.527Z</time>
      </trkpt>
      <trkpt lat="50.50684" lon="3.42741">
        <ele>19.083115</ele>
        <time>2021-05-13T18:50:57.614Z</time>
      </trkpt>
      <trkpt lat="50.50893" lon="3.42426">
        <ele>20.535521</ele>
        <time>2021-05-13T18:51:45.883Z</time>
      </trkpt>
      <trkpt lat="50.50931" lon="3.42378">
        <ele>20.79837</ele>
        <time>2021-05-13T18:51:54.239Z</time>
      </trkpt>
      <trkpt lat="50.50984" lon="3.42324">
        <ele>21.137024</ele>
        <time>2021-05-13T18:52:04.836Z</time>
      </trkpt>
      <trkpt lat="50.50987" lon="3.42321">
        <ele>21.156305</ele>
        <time>2021-05-13T18:52:05.539Z</time>
      </trkpt>
      <trkpt lat="50.51002" lon="3.42307">
        <ele>21.245112</ele>
        <time>2021-05-13T18:52:08.247Z</time>
      </trkpt>
      <trkpt lat="50.51021" lon="3.42292">
        <ele>21.360314</ele>
        <time>2021-05-13T18:52:12.022Z</time>
      </trkpt>
      <trkpt lat="50.51025" lon="3.42289">
        <ele>21.38382</ele>
        <time>2021-05-13T18:52:12.773Z</time>
      </trkpt>
      <trkpt lat="50.51038" lon="3.42282">
        <ele>21.476395</ele>
        <time>2021-05-13T18:52:15.063Z</time>
      </trkpt>
      <trkpt lat="50.5105" lon="3.42275">
        <ele>21.573801</ele>
        <time>2021-05-13T18:52:17.350Z</time>
      </trkpt>
      <trkpt lat="50.5105" lon="3.42275">
        <ele>21.573801</ele>
        <time>2021-05-13T18:52:17.424Z</time>
      </trkpt>
      <trkpt lat="50.5105" lon="3.42275">
        <ele>21.573801</ele>
        <time>2021-05-13T18:52:17.429Z</time>
      </trkpt>
      <trkpt lat="50.51046" lon="3.4226">
        <ele>21.651433</ele>
        <time>2021-05-13T18:52:19.725Z</time>
      </trkpt>
      <trkpt lat="50.5106" lon="3.42232">
        <ele>21.826902</ele>
        <time>2021-05-13T18:52:24.945Z</time>
      </trkpt>
      <trkpt lat="50.51068" lon="3.42217">
        <ele>21.92335</ele>
        <time>2021-05-13T18:52:27.905Z</time>
      </trkpt>
      <trkpt lat="50.51129" lon="3.42133">
        <ele>22.550053</ele>
        <time>2021-05-13T18:52:46.864Z</time>
      </trkpt>
      <trkpt lat="50.51218" lon="3.42052">
        <ele>23.471674</ele>
        <time>2021-05-13T18:53:11.233Z</time>
      </trkpt>
      <trkpt lat="50.51309" lon="3.41999">
        <ele>24.409483</ele>
        <time>2021-05-13T18:53:34.914Z</time>
      </trkpt>
      <trkpt lat="50.51384" lon="3.41976">
        <ele>24.976769</ele>
        <time>2021-05-13T18:53:53.543Z</time>
      </trkpt>
      <trkpt lat="50.51422" lon="3.41972">
        <ele>25.246211</ele>
        <time>2021-05-13T18:54:02.593Z</time>
      </trkpt>
      <trkpt lat="50.51437" lon="3.4197">
        <ele>25.347912</ele>
        <time>2021-05-13T18:54:05.965Z</time>
      </trkpt>
      <trkpt lat="50.51465" lon="3.41959">
        <ele>25.550239</ele>
        <time>2021-05-13T18:54:12.454Z</time>
      </trkpt>
      <trkpt lat="50.51481" lon="3.4195">
        <ele>25.672474</ele>
        <time>2021-05-13T18:54:16.339Z</time>
      </trkpt>
      <trkpt lat="50.51487" lon="3.41945">
        <ele>25.714855</ele>
        <time>2021-05-13T18:54:17.718Z</time>
      </trkpt>
      <trkpt lat="50.5151" lon="3.41926">
        <ele>25.753026</ele>
        <time>2021-05-13T18:54:23.363Z</time>
      </trkpt>
      <trkpt lat="50.51713" lon="3.41925">
        <ele>24.975934</ele>
        <time>2021-05-13T18:55:01.857Z</time>
      </trkpt>
      <trkpt lat="50.51727" lon="3.41926">
        <ele>24.862499</ele>
        <time>2021-05-13T18:55:04.222Z</time>
      </trkpt>
      <trkpt lat="50.51736" lon="3.41927">
        <ele>24.784917</ele>
        <time>2021-05-13T18:55:05.762Z</time>
      </trkpt>
      <trkpt lat="50.51872" lon="3.41918">
        <ele>23.759802</ele>
        <time>2021-05-13T18:55:29.311Z</time>
      </trkpt>
      <trkpt lat="50.5188" lon="3.41917">
        <ele>23.74066</ele>
        <time>2021-05-13T18:55:30.692Z</time>
      </trkpt>
      <trkpt lat="50.51886" lon="3.41916">
        <ele>23.726863</ele>
        <time>2021-05-13T18:55:31.814Z</time>
      </trkpt>
      <trkpt lat="50.51906" lon="3.41912">
        <ele>23.681843</ele>
        <time>2021-05-13T18:55:35.410Z</time>
      </trkpt>
      <trkpt lat="50.52017" lon="3.41913">
        <ele>23.425683</ele>
        <time>2021-05-13T18:55:57.181Z</time>
      </trkpt>
      <trkpt lat="50.52048" lon="3.41921">
        <ele>23.546523</ele>
        <time>2021-05-13T18:56:04.144Z</time>
      </trkpt>
      <trkpt lat="50.52079" lon="3.41929">
        <ele>23.885637</ele>
        <time>2021-05-13T18:56:11.743Z</time>
      </trkpt>
      <trkpt lat="50.52093" lon="3.41932">
        <ele>24.038031</ele>
        <time>2021-05-13T18:56:15.021Z</time>
      </trkpt>
      <trkpt lat="50.52105" lon="3.41935">
        <ele>24.169785</ele>
        <time>2021-05-13T18:56:18.427Z</time>
      </trkpt>
      <trkpt lat="50.52169" lon="3.4195">
        <ele>24.876467</ele>
        <time>2021-05-13T18:56:34.578Z</time>
      </trkpt>
      <trkpt lat="50.52246" lon="3.41966">
        <ele>25.73541</ele>
        <time>2021-05-13T18:56:54.944Z</time>
      </trkpt>
      <trkpt lat="50.52273" lon="3.41971">
        <ele>26.039154</ele>
        <time>2021-05-13T18:57:01.684Z</time>
      </trkpt>
      <trkpt lat="50.52365" lon="3.41989">
        <ele>27.080425</ele>
        <time>2021-05-13T18:57:24.598Z</time>
      </trkpt>
      <trkpt lat="50.52437" lon="3.42011">
        <ele>27.635291</ele>
        <time>2021-05-13T18:57:41.625Z</time>
      </trkpt>
      <trkpt lat="50.52521" lon="3.42029">
        <ele>28.111538</ele>
        <time>2021-05-13T18:58:00.868Z</time>
      </trkpt>
      <trkpt lat="50.52597" lon="3.42045">
        <ele>28.380101</ele>
        <time>2021-05-13T18:58:17.440Z</time>
      </trkpt>
      <trkpt lat="50.52752" lon="3.4208">
        <ele>28.41303</ele>
        <time>2021-05-13T18:58:48.603Z</time>
      </trkpt>
      <trkpt lat="50.52836" lon="3.42099">
        <ele>28.366862</ele>
        <time>2021-05-13T18:59:05.500Z</time>
      </trkpt>
      <trkpt lat="50.5289" lon="3.42111">
        <ele>28.336984</ele>
        <time>2021-05-13T18:59:16.704Z</time>
      </trkpt>
      <trkpt lat="50.53254" lon="3.42189">
        <ele>27.314728</ele>
        <time>2021-05-13T19:00:28.449Z</time>
      </trkpt>
      <trkpt lat="50.53265" lon="3.42192">
        <ele>27.267579</ele>
        <time>2021-05-13T19:00:30.268Z</time>
      </trkpt>
      <trkpt lat="50.53268" lon="3.42193">
        <ele>27.254218</ele>
        <time>2021-05-13T19:00:30.634Z</time>
      </trkpt>
      <trkpt lat="50.53342" lon="3.42208">
        <ele>26.204129</ele>
        <time>2021-05-13T19:00:39.332Z</time>
      </trkpt>
      <trkpt lat="50.53478" lon="3.42237">
        <ele>24.062953</ele>
        <time>2021-05-13T19:00:54.594Z</time>
      </trkpt>
      <trkpt lat="50.53576" lon="3.42263">
        <ele>22.743228</ele>
        <time>2021-05-13T19:01:06.016Z</time>
      </trkpt>
      <trkpt lat="50.53725" lon="3.42291">
        <ele>21.273</ele>
        <time>2021-05-13T19:01:24.876Z</time>
      </trkpt>
      <trkpt lat="50.53826" lon="3.42315">
        <ele>20.543096</ele>
        <time>2021-05-13T19:01:37.994Z</time>
      </trkpt>
      <trkpt lat="50.53907" lon="3.42331">
        <ele>20.033252</ele>
        <time>2021-05-13T19:01:48.918Z</time>
      </trkpt>
      <trkpt lat="50.53965" lon="3.42346">
        <ele>19.67173</ele>
        <time>2021-05-13T19:01:56.427Z</time>
      </trkpt>
      <trkpt lat="50.53968" lon="3.42348">
        <ele>19.648822</ele>
        <time>2021-05-13T19:01:56.850Z</time>
      </trkpt>
      <trkpt lat="50.5398" lon="3.423">
        <ele>19.457508</ele>
        <time>2021-05-13T19:02:02.808Z</time>
      </trkpt>
      <trkpt lat="50.53985" lon="3.4228">
        <ele>19.3969</ele>
        <time>2021-05-13T19:02:05.279Z</time>
      </trkpt>
      <trkpt lat="50.53997" lon="3.42265">
        <ele>19.327328</ele>
        <time>2021-05-13T19:02:07.980Z</time>
      </trkpt>
      <trkpt lat="50.54024" lon="3.4224">
        <ele>19.185996</ele>
        <time>2021-05-13T19:02:13.692Z</time>
      </trkpt>
      <trkpt lat="50.54054" lon="3.42229">
        <ele>19.048293</ele>
        <time>2021-05-13T19:02:19.351Z</time>
      </trkpt>
      <trkpt lat="50.54068" lon="3.42229">
        <ele>18.981732</ele>
        <time>2021-05-13T19:02:22.014Z</time>
      </trkpt>
      <trkpt lat="50.54074" lon="3.4223">
        <ele>18.954942</ele>
        <time>2021-05-13T19:02:23.048Z</time>
      </trkpt>
      <trkpt lat="50.54079" lon="3.4223">
        <ele>18.934968</ele>
        <time>2021-05-13T19:02:23.969Z</time>
      </trkpt>
      <trkpt lat="50.54128" lon="3.42236">
        <ele>18.710607</ele>
        <time>2021-05-13T19:02:33.693Z</time>
      </trkpt>
      <trkpt lat="50.54162" lon="3.42227">
        <ele>18.731937</ele>
        <time>2021-05-13T19:02:40.433Z</time>
      </trkpt>
      <trkpt lat="50.54211" lon="3.42191">
        <ele>18.832985</ele>
        <time>2021-05-13T19:02:51.231Z</time>
      </trkpt>
      <trkpt lat="50.5421" lon="3.42175">
        <ele>18.852217</ele>
        <time>2021-05-13T19:02:52.822Z</time>
      </trkpt>
      <trkpt lat="50.54221" lon="3.42162">
        <ele>18.877832</ele>
        <time>2021-05-13T19:02:55.789Z</time>
      </trkpt>
      <trkpt lat="50.54311" lon="3.41984">
        <ele>19.399408</ele>
        <time>2021-05-13T19:03:28.377Z</time>
      </trkpt>
      <trkpt lat="50.5432" lon="3.41974">
        <ele>19.463306</ele>
        <time>2021-05-13T19:03:31.020Z</time>
      </trkpt>
      <trkpt lat="50.54334" lon="3.4196">
        <ele>19.549754</ele>
        <time>2021-05-13T19:03:34.569Z</time>
      </trkpt>
      <trkpt lat="50.54358" lon="3.41944">
        <ele>19.69191</ele>
        <time>2021-05-13T19:03:40.379Z</time>
      </trkpt>
      <trkpt lat="50.54417" lon="3.41925">
        <ele>20.023652</ele>
        <time>2021-05-13T19:03:53.820Z</time>
      </trkpt>
      <trkpt lat="50.54439" lon="3.41907">
        <ele>20.169868</ele>
        <time>2021-05-13T19:03:59.290Z</time>
      </trkpt>
      <trkpt lat="50.54448" lon="3.41892">
        <ele>20.250423</ele>
        <time>2021-05-13T19:04:02.339Z</time>
      </trkpt>
      <trkpt lat="50.54517" lon="3.41725">
        <ele>21.005703</ele>
        <time>2021-05-13T19:04:30.760Z</time>
      </trkpt>
      <trkpt lat="50.5453" lon="3.41694">
        <ele>21.214779</ele>
        <time>2021-05-13T19:04:36.182Z</time>
      </trkpt>
      <trkpt lat="50.5456" lon="3.4153">
        <ele>22.425241</ele>
        <time>2021-05-13T19:05:02.402Z</time>
      </trkpt>
      <trkpt lat="50.54707" lon="3.41187">
        <ele>25.942778</ele>
        <time>2021-05-13T19:06:11.404Z</time>
      </trkpt>
      <trkpt lat="50.54722" lon="3.41157">
        <ele>26.179629</ele>
        <time>2021-05-13T19:06:17.729Z</time>
      </trkpt>
      <trkpt lat="50.5476" lon="3.41105">
        <ele>26.66715</ele>
        <time>2021-05-13T19:06:29.999Z</time>
      </trkpt>
      <trkpt lat="50.54776" lon="3.41089">
        <ele>26.852925</ele>
        <time>2021-05-13T19:06:34.684Z</time>
      </trkpt>
      <trkpt lat="50.54794" lon="3.41076">
        <ele>27.04687</ele>
        <time>2021-05-13T19:06:39.259Z</time>
      </trkpt>
      <trkpt lat="50.54828" lon="3.4106">
        <ele>27.392625</ele>
        <time>2021-05-13T19:06:47.389Z</time>
      </trkpt>
      <trkpt lat="50.54933" lon="3.41026">
        <ele>27.494912</ele>
        <time>2021-05-13T19:07:10.307Z</time>
      </trkpt>
      <trkpt lat="50.54954" lon="3.41019">
        <ele>27.503781</ele>
        <time>2021-05-13T19:07:14.515Z</time>
      </trkpt>
      <trkpt lat="50.55128" lon="3.40966">
        <ele>26.901866</ele>
        <time>2021-05-13T19:07:47.626Z</time>
      </trkpt>
      <trkpt lat="50.55256" lon="3.40915">
        <ele>26.330242</ele>
        <time>2021-05-13T19:08:11.616Z</time>
      </trkpt>
      <trkpt lat="50.55329" lon="3.40904">
        <ele>26.070608</ele>
        <time>2021-05-13T19:08:25.221Z</time>
      </trkpt>
      <trkpt lat="50.55443" lon="3.40868">
        <ele>26.483847</ele>
        <time>2021-05-13T19:08:49.963Z</time>
      </trkpt>
      <trkpt lat="50.55459" lon="3.40859">
        <ele>26.593571</ele>
        <time>2021-05-13T19:08:53.874Z</time>
      </trkpt>
      <trkpt lat="50.5544" lon="3.40777">
        <ele>26.959139</ele>
        <time>2021-05-13T19:09:06.930Z</time>
      </trkpt>
      <trkpt lat="50.55423" lon="3.40684">
        <ele>27.797082</ele>
        <time>2021-05-13T19:09:22.901Z</time>
      </trkpt>
      <trkpt lat="50.55426" lon="3.40567">
        <ele>29.180479</ele>
        <time>2021-05-13T19:09:43.521Z</time>
      </trkpt>
      <trkpt lat="50.55428" lon="3.40534">
        <ele>29.580401</ele>
        <time>2021-05-13T19:09:49.704Z</time>
      </trkpt>
      <trkpt lat="50.55438" lon="3.40459">
        <ele>30.483904</ele>
        <time>2021-05-13T19:10:03.716Z</time>
      </trkpt>
      <trkpt lat="50.55455" lon="3.40384">
        <ele>31.321654</ele>
        <time>2021-05-13T19:10:18.803Z</time>
      </trkpt>
      <trkpt lat="50.55477" lon="3.40283">
        <ele>32.444864</ele>
        <time>2021-05-13T19:10:38.384Z</time>
      </trkpt>
      <trkpt lat="50.55504" lon="3.40212">
        <ele>33.320075</ele>
        <time>2021-05-13T19:10:50.907Z</time>
      </trkpt>
      <trkpt lat="50.55519" lon="3.40171">
        <ele>33.397592</ele>
        <time>2021-05-13T19:10:57.666Z</time>
      </trkpt>
      <trkpt lat="50.55532" lon="3.40141">
        <ele>33.326415</ele>
        <time>2021-05-13T19:11:02.885Z</time>
      </trkpt>
      <trkpt lat="50.55516" lon="3.40116">
        <ele>33.257154</ele>
        <time>2021-05-13T19:11:06.940Z</time>
      </trkpt>
      <trkpt lat="50.55488" lon="3.40095">
        <ele>33.163419</ele>
        <time>2021-05-13T19:11:12.680Z</time>
      </trkpt>
      <trkpt lat="50.55412" lon="3.40037">
        <ele>32.912561</ele>
        <time>2021-05-13T19:11:27.947Z</time>
      </trkpt>
      <trkpt lat="50.55397" lon="3.40037">
        <ele>32.900728</ele>
        <time>2021-05-13T19:11:30.634Z</time>
      </trkpt>
      <trkpt lat="50.55374" lon="3.40058">
        <ele>32.880397</ele>
        <time>2021-05-13T19:11:35.107Z</time>
      </trkpt>
      <trkpt lat="50.55351" lon="3.40034">
        <ele>32.859033</ele>
        <time>2021-05-13T19:11:40.414Z</time>
      </trkpt>
      <trkpt lat="50.55179" lon="3.39874">
        <ele>33.157536</ele>
        <time>2021-05-13T19:12:23.809Z</time>
      </trkpt>
      <trkpt lat="50.55146" lon="3.39843">
        <ele>33.315891</ele>
        <time>2021-05-13T19:12:32.141Z</time>
      </trkpt>
      <trkpt lat="50.55012" lon="3.39719">
        <ele>34.045914</ele>
        <time>2021-05-13T19:13:06.331Z</time>
      </trkpt>
      <trkpt lat="50.55017" lon="3.39699">
        <ele>34.11324</ele>
        <time>2021-05-13T19:13:09.375Z</time>
      </trkpt>
      <trkpt lat="50.55023" lon="3.39677">
        <ele>34.188582</ele>
        <time>2021-05-13T19:13:12.689Z</time>
      </trkpt>
      <trkpt lat="50.55031" lon="3.3965">
        <ele>34.282125</ele>
        <time>2021-05-13T19:13:16.988Z</time>
      </trkpt>
      <trkpt lat="50.55043" lon="3.39618">
        <ele>34.400515</ele>
        <time>2021-05-13T19:13:22.367Z</time>
      </trkpt>
      <trkpt lat="50.55059" lon="3.39587">
        <ele>34.535335</ele>
        <time>2021-05-13T19:13:28.242Z</time>
      </trkpt>
      <trkpt lat="50.55243" lon="3.39295">
        <ele>35.451274</ele>
        <time>2021-05-13T19:14:26.443Z</time>
      </trkpt>
      <trkpt lat="50.55256" lon="3.39262">
        <ele>35.468499</ele>
        <time>2021-05-13T19:14:31.127Z</time>
      </trkpt>
      <trkpt lat="50.553" lon="3.39112">
        <ele>35.37955</ele>
        <time>2021-05-13T19:14:50.739Z</time>
      </trkpt>
      <trkpt lat="50.55307" lon="3.39087">
        <ele>35.341092</ele>
        <time>2021-05-13T19:14:53.752Z</time>
      </trkpt>
      <trkpt lat="50.55318" lon="3.39056">
        <ele>35.290502</ele>
        <time>2021-05-13T19:14:58.209Z</time>
      </trkpt>
      <trkpt lat="50.55319" lon="3.39053">
        <ele>35.285422</ele>
        <time>2021-05-13T19:14:58.490Z</time>
      </trkpt>
      <trkpt lat="50.5532" lon="3.39047">
        <ele>35.275256</ele>
        <time>2021-05-13T19:14:59.043Z</time>
      </trkpt>
      <trkpt lat="50.5532" lon="3.39043">
        <ele>35.270165</ele>
        <time>2021-05-13T19:14:59.325Z</time>
      </trkpt>
      <trkpt lat="50.55326" lon="3.3903">
        <ele>35.247679</ele>
        <time>2021-05-13T19:15:00.741Z</time>
      </trkpt>
      <trkpt lat="50.55337" lon="3.3901">
        <ele>35.209426</ele>
        <time>2021-05-13T19:15:03.265Z</time>
      </trkpt>
      <trkpt lat="50.55339" lon="3.39007">
        <ele>35.202472</ele>
        <time>2021-05-13T19:15:03.663Z</time>
      </trkpt>
      <trkpt lat="50.55343" lon="3.38997">
        <ele>35.185667</ele>
        <time>2021-05-13T19:15:04.620Z</time>
      </trkpt>
      <trkpt lat="50.55355" lon="3.38973">
        <ele>35.142111</ele>
        <time>2021-05-13T19:15:08.749Z</time>
      </trkpt>
      <trkpt lat="50.55367" lon="3.38948">
        <ele>35.098461</ele>
        <time>2021-05-13T19:15:12.574Z</time>
      </trkpt>
      <trkpt lat="50.55461" lon="3.38747">
        <ele>36.089735</ele>
        <time>2021-05-13T19:15:49.132Z</time>
      </trkpt>
      <trkpt lat="50.55594" lon="3.3841">
        <ele>38.693803</ele>
        <time>2021-05-13T19:16:49.341Z</time>
      </trkpt>
      <trkpt lat="50.55624" lon="3.38347">
        <ele>39.502387</ele>
        <time>2021-05-13T19:17:02.895Z</time>
      </trkpt>
      <trkpt lat="50.55646" lon="3.38302">
        <ele>40.091173</ele>
        <time>2021-05-13T19:17:13.118Z</time>
      </trkpt>
      <trkpt lat="50.5568" lon="3.38242">
        <ele>40.957022</ele>
        <time>2021-05-13T19:17:27.408Z</time>
      </trkpt>
      <trkpt lat="50.55719" lon="3.3817">
        <ele>42.277885</ele>
        <time>2021-05-13T19:17:45.129Z</time>
      </trkpt>
      <trkpt lat="50.55736" lon="3.38138">
        <ele>42.850644</ele>
        <time>2021-05-13T19:17:52.752Z</time>
      </trkpt>
      <trkpt lat="50.55777" lon="3.38064">
        <ele>44.211172</ele>
        <time>2021-05-13T19:18:10.084Z</time>
      </trkpt>
      <trkpt lat="50.55812" lon="3.37998">
        <ele>45.61332</ele>
        <time>2021-05-13T19:18:27.098Z</time>
      </trkpt>
      <trkpt lat="50.55866" lon="3.37871">
        <ele>48.340608</ele>
        <time>2021-05-13T19:18:56.644Z</time>
      </trkpt>
      <trkpt lat="50.55869" lon="3.37866">
        <ele>48.466994</ele>
        <time>2021-05-13T19:18:58.462Z</time>
      </trkpt>
      <trkpt lat="50.55873" lon="3.3786">
        <ele>48.628391</ele>
        <time>2021-05-13T19:19:00.701Z</time>
      </trkpt>
      <trkpt lat="50.55896" lon="3.37821">
        <ele>49.577295</ele>
        <time>2021-05-13T19:19:11.592Z</time>
      </trkpt>
      <trkpt lat="50.56126" lon="3.37544">
        <ele>58.887656</ele>
        <time>2021-05-13T19:20:49.276Z</time>
      </trkpt>
      <trkpt lat="50.56192" lon="3.37455">
        <ele>61.377721</ele>
        <time>2021-05-13T19:21:16.890Z</time>
      </trkpt>
      <trkpt lat="50.56221" lon="3.37403">
        <ele>62.016061</ele>
        <time>2021-05-13T19:21:29.075Z</time>
      </trkpt>
      <trkpt lat="50.56239" lon="3.37368">
        <ele>62.425323</ele>
        <time>2021-05-13T19:21:36.856Z</time>
      </trkpt>
      <trkpt lat="50.56222" lon="3.37356">
        <ele>62.697633</ele>
        <time>2021-05-13T19:21:41.397Z</time>
      </trkpt>
      <trkpt lat="50.56213" lon="3.37334">
        <ele>62.942004</ele>
        <time>2021-05-13T19:21:45.919Z</time>
      </trkpt>
      <trkpt lat="50.56206" lon="3.3727">
        <ele>63.543895</ele>
        <time>2021-05-13T19:21:55.704Z</time>
      </trkpt>
      <trkpt lat="50.56187" lon="3.37229">
        <ele>63.8487</ele>
        <time>2021-05-13T19:22:03.035Z</time>
      </trkpt>
      <trkpt lat="50.55917" lon="3.36852">
        <ele>63.633995</ele>
        <time>2021-05-13T19:23:14.681Z</time>
      </trkpt>
      <trkpt lat="50.55908" lon="3.36848">
        <ele>63.632173</ele>
        <time>2021-05-13T19:23:16.331Z</time>
      </trkpt>
      <trkpt lat="50.559" lon="3.36847">
        <ele>63.630478</ele>
        <time>2021-05-13T19:23:17.899Z</time>
      </trkpt>
      <trkpt lat="50.55894" lon="3.36844">
        <ele>63.629185</ele>
        <time>2021-05-13T19:23:18.866Z</time>
      </trkpt>
      <trkpt lat="50.55873" lon="3.36834">
        <ele>63.624703</ele>
        <time>2021-05-13T19:23:22.937Z</time>
      </trkpt>
      <trkpt lat="50.55779" lon="3.36696">
        <ele>63.653023</ele>
        <time>2021-05-13T19:23:49.043Z</time>
      </trkpt>
      <trkpt lat="50.55773" lon="3.36684">
        <ele>63.730777</ele>
        <time>2021-05-13T19:23:50.827Z</time>
      </trkpt>
      <trkpt lat="50.55772" lon="3.36671">
        <ele>63.793874</ele>
        <time>2021-05-13T19:23:54.118Z</time>
      </trkpt>
      <trkpt lat="50.55774" lon="3.36646">
        <ele>63.925216</ele>
        <time>2021-05-13T19:23:57.585Z</time>
      </trkpt>
      <trkpt lat="50.55824" lon="3.36479">
        <ele>64.857654</ele>
        <time>2021-05-13T19:24:25.651Z</time>
      </trkpt>
      <trkpt lat="50.55827" lon="3.36467">
        <ele>64.923079</ele>
        <time>2021-05-13T19:24:28.910Z</time>
      </trkpt>
      <trkpt lat="50.55849" lon="3.36387">
        <ele>64.85061</ele>
        <time>2021-05-13T19:24:41.128Z</time>
      </trkpt>
      <trkpt lat="50.55887" lon="3.36238">
        <ele>64.416658</ele>
        <time>2021-05-13T19:25:00.367Z</time>
      </trkpt>
      <trkpt lat="50.55895" lon="3.3618">
        <ele>64.22341</ele>
        <time>2021-05-13T19:25:06.532Z</time>
      </trkpt>
      <trkpt lat="50.55879" lon="3.35799">
        <ele>59.141963</ele>
        <time>2021-05-13T19:25:44.543Z</time>
      </trkpt>
      <trkpt lat="50.55876" lon="3.35493">
        <ele>54.645737</ele>
        <time>2021-05-13T19:26:14.150Z</time>
      </trkpt>
      <trkpt lat="50.5588" lon="3.35367">
        <ele>52.808685</ele>
        <time>2021-05-13T19:26:26.572Z</time>
      </trkpt>
      <trkpt lat="50.55888" lon="3.35288">
        <ele>51.876911</ele>
        <time>2021-05-13T19:26:34.630Z</time>
      </trkpt>
      <trkpt lat="50.55896" lon="3.35226">
        <ele>51.261601</ele>
        <time>2021-05-13T19:26:41.137Z</time>
      </trkpt>
      <trkpt lat="50.55905" lon="3.35166">
        <ele>50.673113</ele>
        <time>2021-05-13T19:26:47.485Z</time>
      </trkpt>
      <trkpt lat="50.55917" lon="3.35057">
        <ele>49.606261</ele>
        <time>2021-05-13T19:26:59.610Z</time>
      </trkpt>
      <trkpt lat="50.55921" lon="3.35037">
        <ele>49.582461</ele>
        <time>2021-05-13T19:27:01.902Z</time>
      </trkpt>
      <trkpt lat="50.55928" lon="3.35051">
        <ele>49.562689</ele>
        <time>2021-05-13T19:27:03.938Z</time>
      </trkpt>
      <trkpt lat="50.55946" lon="3.35074">
        <ele>49.521937</ele>
        <time>2021-05-13T19:27:08.136Z</time>
      </trkpt>
      <trkpt lat="50.55973" lon="3.35093">
        <ele>49.470176</ele>
        <time>2021-05-13T19:27:13.668Z</time>
      </trkpt>
      <trkpt lat="50.55973" lon="3.35093">
        <ele>49.470176</ele>
        <time>2021-05-13T19:27:13.723Z</time>
      </trkpt>
      <trkpt lat="50.56081" lon="3.35113">
        <ele>49.31198</ele>
        <time>2021-05-13T19:27:36.187Z</time>
      </trkpt>
      <trkpt lat="50.56126" lon="3.35149">
        <ele>49.515076</ele>
        <time>2021-05-13T19:27:47.642Z</time>
      </trkpt>
      <trkpt lat="50.56227" lon="3.35269">
        <ele>49.998338</ele>
        <time>2021-05-13T19:28:15.717Z</time>
      </trkpt>
      <trkpt lat="50.56275" lon="3.35383">
        <ele>49.682906</ele>
        <time>2021-05-13T19:28:33.637Z</time>
      </trkpt>
      <trkpt lat="50.56305" lon="3.3544">
        <ele>49.511916</ele>
        <time>2021-05-13T19:28:42.165Z</time>
      </trkpt>
      <trkpt lat="50.56309" lon="3.35446">
        <ele>49.494905</ele>
        <time>2021-05-13T19:28:43.010Z</time>
      </trkpt>
      <trkpt lat="50.56333" lon="3.35472">
        <ele>49.387373</ele>
        <time>2021-05-13T19:28:48.242Z</time>
      </trkpt>
      <trkpt lat="50.56376" lon="3.35506">
        <ele>48.811825</ele>
        <time>2021-05-13T19:28:56.458Z</time>
      </trkpt>
      <trkpt lat="50.56387" lon="3.35515">
        <ele>48.638015</ele>
        <time>2021-05-13T19:28:58.630Z</time>
      </trkpt>
      <trkpt lat="50.5639" lon="3.35495">
        <ele>48.453694</ele>
        <time>2021-05-13T19:29:00.778Z</time>
      </trkpt>
      <trkpt lat="50.56382" lon="3.35329">
        <ele>47.000706</ele>
        <time>2021-05-13T19:29:18.059Z</time>
      </trkpt>
      <trkpt lat="50.56355" lon="3.35209">
        <ele>46.095254</ele>
        <time>2021-05-13T19:29:31.502Z</time>
      </trkpt>
      <trkpt lat="50.56352" lon="3.35167">
        <ele>45.801228</ele>
        <time>2021-05-13T19:29:36.171Z</time>
      </trkpt>
      <trkpt lat="50.56415" lon="3.34974">
        <ele>44.745218</ele>
        <time>2021-05-13T19:30:01.058Z</time>
      </trkpt>
      <trkpt lat="50.5642" lon="3.34961">
        <ele>44.714614</ele>
        <time>2021-05-13T19:30:02.960Z</time>
      </trkpt>
      <trkpt lat="50.56422" lon="3.34949">
        <ele>44.690442</ele>
        <time>2021-05-13T19:30:04.384Z</time>
      </trkpt>
      <trkpt lat="50.56459" lon="3.34786">
        <ele>44.370079</ele>
        <time>2021-05-13T19:30:26.067Z</time>
      </trkpt>
      <trkpt lat="50.56463" lon="3.34772">
        <ele>44.395967</ele>
        <time>2021-05-13T19:30:27.992Z</time>
      </trkpt>
      <trkpt lat="50.56466" lon="3.3476">
        <ele>44.418001</ele>
        <time>2021-05-13T19:30:29.658Z</time>
      </trkpt>
      <trkpt lat="50.56544" lon="3.3456">
        <ele>44.81722</ele>
        <time>2021-05-13T19:31:01.538Z</time>
      </trkpt>
      <trkpt lat="50.56631" lon="3.34416">
        <ele>45.656311</ele>
        <time>2021-05-13T19:31:30.741Z</time>
      </trkpt>
      <trkpt lat="50.56655" lon="3.34341">
        <ele>46.024464</ele>
        <time>2021-05-13T19:31:43.516Z</time>
      </trkpt>
      <trkpt lat="50.56676" lon="3.34233">
        <ele>46.268042</ele>
        <time>2021-05-13T19:31:59.921Z</time>
      </trkpt>
      <trkpt lat="50.56699" lon="3.34188">
        <ele>46.378537</ele>
        <time>2021-05-13T19:32:07.927Z</time>
      </trkpt>
      <trkpt lat="50.56711" lon="3.34175">
        <ele>46.421228</ele>
        <time>2021-05-13T19:32:11.194Z</time>
      </trkpt>
      <trkpt lat="50.56727" lon="3.34205">
        <ele>46.495636</ele>
        <time>2021-05-13T19:32:16.186Z</time>
      </trkpt>
      <trkpt lat="50.56772" lon="3.34291">
        <ele>46.342802</ele>
        <time>2021-05-13T19:32:29.743Z</time>
      </trkpt>
      <trkpt lat="50.56775" lon="3.34298">
        <ele>46.295059</ele>
        <time>2021-05-13T19:32:30.783Z</time>
      </trkpt>
      <trkpt lat="50.56818" lon="3.34392">
        <ele>45.633414</ele>
        <time>2021-05-13T19:32:43.896Z</time>
      </trkpt>
      <trkpt lat="50.56824" lon="3.34411">
        <ele>45.509925</ele>
        <time>2021-05-13T19:32:46.244Z</time>
      </trkpt>
      <trkpt lat="50.56825" lon="3.34416">
        <ele>45.480285</ele>
        <time>2021-05-13T19:32:46.761Z</time>
      </trkpt>
      <trkpt lat="50.56842" lon="3.34472">
        <ele>45.127058</ele>
        <time>2021-05-13T19:32:53.388Z</time>
      </trkpt>
      <trkpt lat="50.56883" lon="3.34606">
        <ele>43.787013</ele>
        <time>2021-05-13T19:33:09.217Z</time>
      </trkpt>
      <trkpt lat="50.56918" lon="3.34649">
        <ele>43.126447</ele>
        <time>2021-05-13T19:33:16.462Z</time>
      </trkpt>
      <trkpt lat="50.57012" lon="3.34744">
        <ele>41.346911</ele>
        <time>2021-05-13T19:33:34.377Z</time>
      </trkpt>
      <trkpt lat="50.57038" lon="3.34799">
        <ele>40.614731</ele>
        <time>2021-05-13T19:33:41.410Z</time>
      </trkpt>
      <trkpt lat="50.5705" lon="3.34814">
        <ele>40.350478</ele>
        <time>2021-05-13T19:33:44.012Z</time>
      </trkpt>
      <trkpt lat="50.57052" lon="3.34815">
        <ele>40.319433</ele>
        <time>2021-05-13T19:33:44.255Z</time>
      </trkpt>
      <trkpt lat="50.57075" lon="3.34831">
        <ele>39.901228</ele>
        <time>2021-05-13T19:33:48.444Z</time>
      </trkpt>
      <trkpt lat="50.5708" lon="3.34836">
        <ele>39.794434</ele>
        <time>2021-05-13T19:33:49.470Z</time>
      </trkpt>
      <trkpt lat="50.57136" lon="3.34844">
        <ele>38.986368</ele>
        <time>2021-05-13T19:33:58.609Z</time>
      </trkpt>
      <trkpt lat="50.57324" lon="3.34907">
        <ele>37.065996</ele>
        <time>2021-05-13T19:34:31.560Z</time>
      </trkpt>
      <trkpt lat="50.57338" lon="3.34901">
        <ele>37.003398</ele>
        <time>2021-05-13T19:34:34.451Z</time>
      </trkpt>
      <trkpt lat="50.57348" lon="3.34894">
        <ele>36.961114</ele>
        <time>2021-05-13T19:34:36.296Z</time>
      </trkpt>
      <trkpt lat="50.57351" lon="3.34909">
        <ele>36.91776</ele>
        <time>2021-05-13T19:34:37.732Z</time>
      </trkpt>
      <trkpt lat="50.57361" lon="3.34934">
        <ele>36.841399</ele>
        <time>2021-05-13T19:34:40.292Z</time>
      </trkpt>
      <trkpt lat="50.57367" lon="3.34943">
        <ele>36.807089</ele>
        <time>2021-05-13T19:34:41.374Z</time>
      </trkpt>
      <trkpt lat="50.57375" lon="3.34955">
        <ele>36.761319</ele>
        <time>2021-05-13T19:34:42.973Z</time>
      </trkpt>
      <trkpt lat="50.57386" lon="3.34967">
        <ele>36.706279</ele>
        <time>2021-05-13T19:34:44.992Z</time>
      </trkpt>
      <trkpt lat="50.57409" lon="3.34992">
        <ele>36.591611</ele>
        <time>2021-05-13T19:34:48.994Z</time>
      </trkpt>
      <trkpt lat="50.57432" lon="3.35018">
        <ele>36.479438</ele>
        <time>2021-05-13T19:34:53.094Z</time>
      </trkpt>
      <trkpt lat="50.57477" lon="3.35061">
        <ele>36.703565</ele>
        <time>2021-05-13T19:35:01.292Z</time>
      </trkpt>
      <trkpt lat="50.57495" lon="3.35075">
        <ele>36.789411</ele>
        <time>2021-05-13T19:35:04.450Z</time>
      </trkpt>
      <trkpt lat="50.57504" lon="3.35089">
        <ele>36.844448</ele>
        <time>2021-05-13T19:35:06.614Z</time>
      </trkpt>
      <trkpt lat="50.57514" lon="3.35114">
        <ele>36.924301</ele>
        <time>2021-05-13T19:35:09.902Z</time>
      </trkpt>
      <trkpt lat="50.57543" lon="3.35312">
        <ele>37.385045</ele>
        <time>2021-05-13T19:35:32.303Z</time>
      </trkpt>
      <trkpt lat="50.57544" lon="3.35318">
        <ele>37.395188</ele>
        <time>2021-05-13T19:35:32.982Z</time>
      </trkpt>
      <trkpt lat="50.57544" lon="3.35318">
        <ele>37.395188</ele>
        <time>2021-05-13T19:35:33.041Z</time>
      </trkpt>
      <trkpt lat="50.57559" lon="3.35409">
        <ele>37.548341</ele>
        <time>2021-05-13T19:35:42.258Z</time>
      </trkpt>
      <trkpt lat="50.57577" lon="3.35518">
        <ele>37.628716</ele>
        <time>2021-05-13T19:35:52.960Z</time>
      </trkpt>
      <trkpt lat="50.57578" lon="3.35528">
        <ele>37.565761</ele>
        <time>2021-05-13T19:35:53.795Z</time>
      </trkpt>
      <trkpt lat="50.5758" lon="3.35542">
        <ele>37.480684</ele>
        <time>2021-05-13T19:35:55.455Z</time>
      </trkpt>
      <trkpt lat="50.57594" lon="3.35624">
        <ele>36.981293</ele>
        <time>2021-05-13T19:36:02.997Z</time>
      </trkpt>
      <trkpt lat="50.57615" lon="3.35723">
        <ele>36.366855</ele>
        <time>2021-05-13T19:36:10.688Z</time>
      </trkpt>
      <trkpt lat="50.57637" lon="3.35824">
        <ele>35.508171</ele>
        <time>2021-05-13T19:36:18.261Z</time>
      </trkpt>
      <trkpt lat="50.57644" lon="3.35844">
        <ele>35.265917</ele>
        <time>2021-05-13T19:36:20.070Z</time>
      </trkpt>
      <trkpt lat="50.5765" lon="3.35849">
        <ele>35.148451</ele>
        <time>2021-05-13T19:36:20.751Z</time>
      </trkpt>
      <trkpt lat="50.57661" lon="3.35855">
        <ele>34.954706</ele>
        <time>2021-05-13T19:36:22.180Z</time>
      </trkpt>
      <trkpt lat="50.57714" lon="3.35851">
        <ele>34.090092</ele>
        <time>2021-05-13T19:36:28.216Z</time>
      </trkpt>
      <trkpt lat="50.57724" lon="3.35855">
        <ele>33.908233</ele>
        <time>2021-05-13T19:36:29.337Z</time>
      </trkpt>
      <trkpt lat="50.57784" lon="3.35933">
        <ele>32.865608</ele>
        <time>2021-05-13T19:36:38.118Z</time>
      </trkpt>
      <trkpt lat="50.57789" lon="3.35955">
        <ele>32.744455</ele>
        <time>2021-05-13T19:36:40.000Z</time>
      </trkpt>
      <trkpt lat="50.57794" lon="3.36079">
        <ele>32.127344</ele>
        <time>2021-05-13T19:36:49.988Z</time>
      </trkpt>
      <trkpt lat="50.57805" lon="3.36138">
        <ele>31.820952</ele>
        <time>2021-05-13T19:36:55.328Z</time>
      </trkpt>
      <trkpt lat="50.57832" lon="3.36173">
        <ele>31.619521</ele>
        <time>2021-05-13T19:37:00.295Z</time>
      </trkpt>
      <trkpt lat="50.57851" lon="3.36216">
        <ele>31.525158</ele>
        <time>2021-05-13T19:37:05.306Z</time>
      </trkpt>
      <trkpt lat="50.57928" lon="3.36437">
        <ele>31.030152</ele>
        <time>2021-05-13T19:37:27.277Z</time>
      </trkpt>
      <trkpt lat="50.57943" lon="3.36485">
        <ele>30.878099</ele>
        <time>2021-05-13T19:37:31.826Z</time>
      </trkpt>
      <trkpt lat="50.57949" lon="3.36503">
        <ele>30.820517</ele>
        <time>2021-05-13T19:37:33.445Z</time>
      </trkpt>
      <trkpt lat="50.5797" lon="3.36569">
        <ele>30.608572</ele>
        <time>2021-05-13T19:37:39.711Z</time>
      </trkpt>
      <trkpt lat="50.58068" lon="3.36809">
        <ele>30.107724</ele>
        <time>2021-05-13T19:38:04.770Z</time>
      </trkpt>
      <trkpt lat="50.58091" lon="3.36843">
        <ele>30.044289</ele>
        <time>2021-05-13T19:38:09.630Z</time>
      </trkpt>
      <trkpt lat="50.58136" lon="3.36924">
        <ele>29.815611</ele>
        <time>2021-05-13T19:38:19.452Z</time>
      </trkpt>
      <trkpt lat="50.58139" lon="3.36931">
        <ele>29.793958</ele>
        <time>2021-05-13T19:38:20.096Z</time>
      </trkpt>
      <trkpt lat="50.5819" lon="3.37044">
        <ele>29.427105</ele>
        <time>2021-05-13T19:38:32.136Z</time>
      </trkpt>
      <trkpt lat="50.58206" lon="3.37097">
        <ele>29.27122</ele>
        <time>2021-05-13T19:38:36.922Z</time>
      </trkpt>
      <trkpt lat="50.58213" lon="3.37118">
        <ele>29.189799</ele>
        <time>2021-05-13T19:38:38.762Z</time>
      </trkpt>
      <trkpt lat="50.58268" lon="3.37241">
        <ele>28.573638</ele>
        <time>2021-05-13T19:38:51.059Z</time>
      </trkpt>
      <trkpt lat="50.58294" lon="3.37303">
        <ele>28.26974</ele>
        <time>2021-05-13T19:38:57.116Z</time>
      </trkpt>
      <trkpt lat="50.58315" lon="3.37352">
        <ele>28.055684</ele>
        <time>2021-05-13T19:39:02.135Z</time>
      </trkpt>
      <trkpt lat="50.58326" lon="3.37377">
        <ele>27.989142</ele>
        <time>2021-05-13T19:39:04.692Z</time>
      </trkpt>
      <trkpt lat="50.5833" lon="3.3739">
        <ele>27.958788</ele>
        <time>2021-05-13T19:39:05.842Z</time>
      </trkpt>
      <trkpt lat="50.58381" lon="3.37578">
        <ele>27.507504</ele>
        <time>2021-05-13T19:39:23.628Z</time>
      </trkpt>
      <trkpt lat="50.58403" lon="3.37641">
        <ele>27.451557</ele>
        <time>2021-05-13T19:39:30.187Z</time>
      </trkpt>
      <trkpt lat="50.58426" lon="3.37692">
        <ele>27.436118</ele>
        <time>2021-05-13T19:39:36.098Z</time>
      </trkpt>
      <trkpt lat="50.58519" lon="3.37832">
        <ele>27.348173</ele>
        <time>2021-05-13T19:39:55.436Z</time>
      </trkpt>
      <trkpt lat="50.58545" lon="3.37889">
        <ele>27.256149</ele>
        <time>2021-05-13T19:40:01.857Z</time>
      </trkpt>
      <trkpt lat="50.58581" lon="3.38078">
        <ele>26.970036</ele>
        <time>2021-05-13T19:40:19.311Z</time>
      </trkpt>
      <trkpt lat="50.58584" lon="3.38105">
        <ele>26.902534</ele>
        <time>2021-05-13T19:40:21.588Z</time>
      </trkpt>
      <trkpt lat="50.58586" lon="3.38134">
        <ele>26.830597</ele>
        <time>2021-05-13T19:40:24.066Z</time>
      </trkpt>
      <trkpt lat="50.58583" lon="3.38172">
        <ele>26.736649</ele>
        <time>2021-05-13T19:40:27.215Z</time>
      </trkpt>
      <trkpt lat="50.58584" lon="3.3822">
        <ele>26.617788</ele>
        <time>2021-05-13T19:40:31.298Z</time>
      </trkpt>
      <trkpt lat="50.58588" lon="3.38273">
        <ele>26.485988</ele>
        <time>2021-05-13T19:40:35.857Z</time>
      </trkpt>
      <trkpt lat="50.58589" lon="3.38281">
        <ele>26.465012</ele>
        <time>2021-05-13T19:40:36.525Z</time>
      </trkpt>
      <trkpt lat="50.58608" lon="3.38371">
        <ele>26.282002</ele>
        <time>2021-05-13T19:40:44.850Z</time>
      </trkpt>
      <trkpt lat="50.58611" lon="3.38386">
        <ele>26.267255</ele>
        <time>2021-05-13T19:40:46.180Z</time>
      </trkpt>
      <trkpt lat="50.58672" lon="3.38678">
        <ele>25.926401</ele>
        <time>2021-05-13T19:41:14.611Z</time>
      </trkpt>
      <trkpt lat="50.58676" lon="3.38696">
        <ele>25.89624</ele>
        <time>2021-05-13T19:41:16.286Z</time>
      </trkpt>
      <trkpt lat="50.58686" lon="3.3874">
        <ele>25.821885</ele>
        <time>2021-05-13T19:41:20.518Z</time>
      </trkpt>
      <trkpt lat="50.58693" lon="3.3876">
        <ele>25.784598</ele>
        <time>2021-05-13T19:41:22.505Z</time>
      </trkpt>
      <trkpt lat="50.58696" lon="3.38771">
        <ele>25.76621</ele>
        <time>2021-05-13T19:41:23.538Z</time>
      </trkpt>
      <trkpt lat="50.58705" lon="3.38797">
        <ele>25.719858</ele>
        <time>2021-05-13T19:41:26.222Z</time>
      </trkpt>
      <trkpt lat="50.58706" lon="3.388">
        <ele>25.713377</ele>
        <time>2021-05-13T19:41:26.491Z</time>
      </trkpt>
      <trkpt lat="50.58827" lon="3.39089">
        <ele>25.075313</ele>
        <time>2021-05-13T19:41:56.291Z</time>
      </trkpt>
      <trkpt lat="50.58827" lon="3.39089">
        <ele>25.075313</ele>
        <time>2021-05-13T19:41:56.297Z</time>
      </trkpt>
      <trkpt lat="50.58841" lon="3.39128">
        <ele>25.216733</ele>
        <time>2021-05-13T19:42:00.979Z</time>
      </trkpt>
      <trkpt lat="50.58865" lon="3.39224">
        <ele>25.761695</ele>
        <time>2021-05-13T19:42:12.165Z</time>
      </trkpt>
      <trkpt lat="50.58896" lon="3.39297">
        <ele>26.220778</ele>
        <time>2021-05-13T19:42:22.330Z</time>
      </trkpt>
      <trkpt lat="50.58904" lon="3.39309">
        <ele>26.312342</ele>
        <time>2021-05-13T19:42:24.767Z</time>
      </trkpt>
      <trkpt lat="50.58887" lon="3.39326">
        <ele>26.476788</ele>
        <time>2021-05-13T19:42:28.833Z</time>
      </trkpt>
      <trkpt lat="50.58668" lon="3.3946">
        <ele>31.308215</ele>
        <time>2021-05-13T19:43:23.170Z</time>
      </trkpt>
      <trkpt lat="50.58533" lon="3.39506">
        <ele>34.746098</ele>
        <time>2021-05-13T19:43:58.090Z</time>
      </trkpt>
      <trkpt lat="50.58484" lon="3.39527">
        <ele>36.246184</ele>
        <time>2021-05-13T19:44:11.345Z</time>
      </trkpt>
      <trkpt lat="50.58438" lon="3.3954">
        <ele>37.612122</ele>
        <time>2021-05-13T19:44:23.371Z</time>
      </trkpt>
      <trkpt lat="50.58257" lon="3.39525">
        <ele>43.408677</ele>
        <time>2021-05-13T19:45:13.335Z</time>
      </trkpt>
      <trkpt lat="50.58256" lon="3.39525">
        <ele>43.473507</ele>
        <time>2021-05-13T19:45:14.545Z</time>
      </trkpt>
      <trkpt lat="50.57849" lon="3.39497">
        <ele>57.524116</ele>
        <time>2021-05-13T19:47:12.039Z</time>
      </trkpt>
      <trkpt lat="50.57822" lon="3.39482">
        <ele>58.479568</ele>
        <time>2021-05-13T19:47:20.026Z</time>
      </trkpt>
      <trkpt lat="50.57736" lon="3.39415">
        <ele>60.671996</ele>
        <time>2021-05-13T19:47:44.642Z</time>
      </trkpt>
      <trkpt lat="50.57696" lon="3.39395">
        <ele>61.61374</ele>
        <time>2021-05-13T19:47:54.232Z</time>
      </trkpt>
      <trkpt lat="50.57647" lon="3.39385">
        <ele>62.539165</ele>
        <time>2021-05-13T19:48:04.789Z</time>
      </trkpt>
      <trkpt lat="50.57541" lon="3.39409">
        <ele>62.828397</ele>
        <time>2021-05-13T19:48:22.915Z</time>
      </trkpt>
      <trkpt lat="50.57506" lon="3.39426">
        <ele>62.928288</ele>
        <time>2021-05-13T19:48:28.065Z</time>
      </trkpt>
      <trkpt lat="50.57486" lon="3.39435">
        <ele>62.983408</ele>
        <time>2021-05-13T19:48:30.724Z</time>
      </trkpt>
      <trkpt lat="50.57308" lon="3.39461">
        <ele>60.907713</ele>
        <time>2021-05-13T19:48:52.024Z</time>
      </trkpt>
      <trkpt lat="50.57273" lon="3.39465">
        <ele>60.200989</ele>
        <time>2021-05-13T19:48:56.010Z</time>
      </trkpt>
      <trkpt lat="50.57394" lon="3.40253">
        <ele>49.171314</ele>
        <time>2021-05-13T19:49:51.603Z</time>
      </trkpt>
      <trkpt lat="50.57522" lon="3.41077">
        <ele>44.694738</ele>
        <time>2021-05-13T19:51:00.114Z</time>
      </trkpt>
      <trkpt lat="50.57552" lon="3.41266">
        <ele>43.484598</ele>
        <time>2021-05-13T19:51:14.981Z</time>
      </trkpt>
      <trkpt lat="50.57553" lon="3.41271">
        <ele>43.452022</ele>
        <time>2021-05-13T19:51:15.363Z</time>
      </trkpt>
      <trkpt lat="50.57572" lon="3.41258">
        <ele>43.248856</ele>
        <time>2021-05-13T19:51:17.938Z</time>
      </trkpt>
      <trkpt lat="50.57683" lon="3.41203">
        <ele>43.021393</ele>
        <time>2021-05-13T19:51:33.336Z</time>
      </trkpt>
      <trkpt lat="50.57882" lon="3.41132">
        <ele>43.95667</ele>
        <time>2021-05-13T19:52:09.210Z</time>
      </trkpt>
      <trkpt lat="50.57959" lon="3.41104">
        <ele>44.550076</ele>
        <time>2021-05-13T19:52:23.974Z</time>
      </trkpt>
      <trkpt lat="50.57965" lon="3.41102">
        <ele>44.579673</ele>
        <time>2021-05-13T19:52:25.098Z</time>
      </trkpt>
      <trkpt lat="50.58035" lon="3.41074">
        <ele>44.931878</ele>
        <time>2021-05-13T19:52:37.925Z</time>
      </trkpt>
      <trkpt lat="50.5816" lon="3.41023">
        <ele>45.273452</ele>
        <time>2021-05-13T19:52:58.387Z</time>
      </trkpt>
      <trkpt lat="50.58273" lon="3.40976">
        <ele>44.967746</ele>
        <time>2021-05-13T19:53:14.633Z</time>
      </trkpt>
      <trkpt lat="50.58293" lon="3.40966">
        <ele>44.913669</ele>
        <time>2021-05-13T19:53:17.426Z</time>
      </trkpt>
      <trkpt lat="50.58555" lon="3.41295">
        <ele>41.452517</ele>
        <time>2021-05-13T19:54:14.904Z</time>
      </trkpt>
      <trkpt lat="50.58575" lon="3.41319">
        <ele>41.178224</ele>
        <time>2021-05-13T19:54:19.293Z</time>
      </trkpt>
      <trkpt lat="50.58733" lon="3.41513">
        <ele>39.367576</ele>
        <time>2021-05-13T19:54:54.996Z</time>
      </trkpt>
      <trkpt lat="50.5886" lon="3.41673">
        <ele>37.335127</ele>
        <time>2021-05-13T19:55:22.687Z</time>
      </trkpt>
      <trkpt lat="50.58749" lon="3.41943">
        <ele>32.47391</ele>
        <time>2021-05-13T19:55:54.158Z</time>
      </trkpt>
      <trkpt lat="50.58782" lon="3.41999">
        <ele>30.873938</ele>
        <time>2021-05-13T19:56:01.271Z</time>
      </trkpt>
      <trkpt lat="50.58797" lon="3.4205">
        <ele>29.717296</ele>
        <time>2021-05-13T19:56:06.273Z</time>
      </trkpt>
      <trkpt lat="50.58835" lon="3.42101">
        <ele>28.078699</ele>
        <time>2021-05-13T19:56:13.221Z</time>
      </trkpt>
      <trkpt lat="50.58884" lon="3.42122">
        <ele>26.724022</ele>
        <time>2021-05-13T19:56:20.923Z</time>
      </trkpt>
      <trkpt lat="50.58889" lon="3.42126">
        <ele>26.62128</ele>
        <time>2021-05-13T19:56:21.539Z</time>
      </trkpt>
      <trkpt lat="50.58896" lon="3.42133">
        <ele>26.437241</ele>
        <time>2021-05-13T19:56:22.723Z</time>
      </trkpt>
      <trkpt lat="50.58911" lon="3.42148">
        <ele>26.061542</ele>
        <time>2021-05-13T19:56:25.914Z</time>
      </trkpt>
      <trkpt lat="50.58923" lon="3.42171">
        <ele>25.640218</ele>
        <time>2021-05-13T19:56:28.739Z</time>
      </trkpt>
      <trkpt lat="50.58951" lon="3.42216">
        <ele>24.792561</ele>
        <time>2021-05-13T19:56:35.019Z</time>
      </trkpt>
      <trkpt lat="50.58949" lon="3.42218">
        <ele>24.758371</ele>
        <time>2021-05-13T19:56:35.424Z</time>
      </trkpt>
      <trkpt lat="50.58939" lon="3.42226">
        <ele>24.513317</ele>
        <time>2021-05-13T19:56:37.102Z</time>
      </trkpt>
      <trkpt lat="50.58874" lon="3.42283">
        <ele>23.462991</ele>
        <time>2021-05-13T19:56:45.546Z</time>
      </trkpt>
      <trkpt lat="50.58859" lon="3.42302">
        <ele>23.428727</ele>
        <time>2021-05-13T19:56:48.029Z</time>
      </trkpt>
      <trkpt lat="50.588" lon="3.42427">
        <ele>23.251554</ele>
        <time>2021-05-13T19:57:04.809Z</time>
      </trkpt>
      <trkpt lat="50.58771" lon="3.42463">
        <ele>23.178455</ele>
        <time>2021-05-13T19:57:10.292Z</time>
      </trkpt>
      <trkpt lat="50.58762" lon="3.42474">
        <ele>23.129056</ele>
        <time>2021-05-13T19:57:11.971Z</time>
      </trkpt>
      <trkpt lat="50.58705" lon="3.42549">
        <ele>22.79901</ele>
        <time>2021-05-13T19:57:21.809Z</time>
      </trkpt>
      <trkpt lat="50.58682" lon="3.42584">
        <ele>22.656743</ele>
        <time>2021-05-13T19:57:25.930Z</time>
      </trkpt>
      <trkpt lat="50.58548" lon="3.42867">
        <ele>21.855642</ele>
        <time>2021-05-13T19:57:55.502Z</time>
      </trkpt>
      <trkpt lat="50.58532" lon="3.42893">
        <ele>21.927623</ele>
        <time>2021-05-13T19:57:58.870Z</time>
      </trkpt>
      <trkpt lat="50.58526" lon="3.42903">
        <ele>22.05352</ele>
        <time>2021-05-13T19:58:00.534Z</time>
      </trkpt>
      <trkpt lat="50.5852" lon="3.42912">
        <ele>22.182495</ele>
        <time>2021-05-13T19:58:02.188Z</time>
      </trkpt>
      <trkpt lat="50.58514" lon="3.42922">
        <ele>22.31251</ele>
        <time>2021-05-13T19:58:03.769Z</time>
      </trkpt>
      <trkpt lat="50.58505" lon="3.42937">
        <ele>22.506657</ele>
        <time>2021-05-13T19:58:06.311Z</time>
      </trkpt>
      <trkpt lat="50.58463" lon="3.42999">
        <ele>23.362342</ele>
        <time>2021-05-13T19:58:18.332Z</time>
      </trkpt>
      <trkpt lat="50.58428" lon="3.43047">
        <ele>24.051874</ele>
        <time>2021-05-13T19:58:28.870Z</time>
      </trkpt>
      <trkpt lat="50.584" lon="3.43087">
        <ele>24.653218</ele>
        <time>2021-05-13T19:58:38.646Z</time>
      </trkpt>
      <trkpt lat="50.58283" lon="3.43223">
        <ele>27.421891</ele>
        <time>2021-05-13T19:59:13.573Z</time>
      </trkpt>
      <trkpt lat="50.58237" lon="3.43268">
        <ele>27.754931</ele>
        <time>2021-05-13T19:59:22.659Z</time>
      </trkpt>
      <trkpt lat="50.58228" lon="3.43276">
        <ele>27.704111</ele>
        <time>2021-05-13T19:59:24.010Z</time>
      </trkpt>
      <trkpt lat="50.58196" lon="3.43306">
        <ele>27.510055</ele>
        <time>2021-05-13T19:59:29.206Z</time>
      </trkpt>
      <trkpt lat="50.58189" lon="3.43312">
        <ele>27.46723</ele>
        <time>2021-05-13T19:59:30.241Z</time>
      </trkpt>
      <trkpt lat="50.58139" lon="3.43358">
        <ele>27.168069</ele>
        <time>2021-05-13T19:59:37.207Z</time>
      </trkpt>
      <trkpt lat="50.58122" lon="3.43377">
        <ele>27.058462</ele>
        <time>2021-05-13T19:59:39.629Z</time>
      </trkpt>
      <trkpt lat="50.58071" lon="3.43441">
        <ele>26.791184</ele>
        <time>2021-05-13T19:59:47.328Z</time>
      </trkpt>
      <trkpt lat="50.58042" lon="3.43475">
        <ele>26.659559</ele>
        <time>2021-05-13T19:59:51.862Z</time>
      </trkpt>
      <trkpt lat="50.58034" lon="3.43484">
        <ele>26.623501</ele>
        <time>2021-05-13T19:59:53.209Z</time>
      </trkpt>
      <trkpt lat="50.58026" lon="3.43491">
        <ele>26.589643</ele>
        <time>2021-05-13T19:59:54.638Z</time>
      </trkpt>
      <trkpt lat="50.57998" lon="3.43511">
        <ele>26.476973</ele>
        <time>2021-05-13T19:59:58.946Z</time>
      </trkpt>
      <trkpt lat="50.57934" lon="3.43528">
        <ele>26.458637</ele>
        <time>2021-05-13T20:00:09.887Z</time>
      </trkpt>
      <trkpt lat="50.57906" lon="3.43536">
        <ele>26.681163</ele>
        <time>2021-05-13T20:00:14.995Z</time>
      </trkpt>
      <trkpt lat="50.57881" lon="3.43554">
        <ele>26.902281</ele>
        <time>2021-05-13T20:00:20.827Z</time>
      </trkpt>
      <trkpt lat="50.5781" lon="3.43654">
        <ele>27.663598</ele>
        <time>2021-05-13T20:00:38.251Z</time>
      </trkpt>
      <trkpt lat="50.57809" lon="3.43668">
        <ele>27.732438</ele>
        <time>2021-05-13T20:00:40.214Z</time>
      </trkpt>
      <trkpt lat="50.5781" lon="3.43681">
        <ele>27.676863</ele>
        <time>2021-05-13T20:00:41.455Z</time>
      </trkpt>
      <trkpt lat="50.57825" lon="3.43755">
        <ele>27.282462</ele>
        <time>2021-05-13T20:00:49.535Z</time>
      </trkpt>
      <trkpt lat="50.57824" lon="3.4377">
        <ele>27.204093</ele>
        <time>2021-05-13T20:00:50.930Z</time>
      </trkpt>
      <trkpt lat="50.57821" lon="3.43781">
        <ele>27.144629</ele>
        <time>2021-05-13T20:00:52.170Z</time>
      </trkpt>
      <trkpt lat="50.57788" lon="3.43818">
        <ele>26.81968</ele>
        <time>2021-05-13T20:00:56.962Z</time>
      </trkpt>
      <trkpt lat="50.57725" lon="3.43853">
        <ele>26.268608</ele>
        <time>2021-05-13T20:01:04.359Z</time>
      </trkpt>
      <trkpt lat="50.57725" lon="3.43853">
        <ele>26.268608</ele>
        <time>2021-05-13T20:01:04.362Z</time>
      </trkpt>
      <trkpt lat="50.5768" lon="3.43896">
        <ele>25.071932</ele>
        <time>2021-05-13T20:01:10.011Z</time>
      </trkpt>
      <trkpt lat="50.57669" lon="3.43905">
        <ele>24.777168</ele>
        <time>2021-05-13T20:01:11.440Z</time>
      </trkpt>
      <trkpt lat="50.57659" lon="3.43913">
        <ele>24.521576</ele>
        <time>2021-05-13T20:01:12.527Z</time>
      </trkpt>
      <trkpt lat="50.57543" lon="3.43966">
        <ele>21.856919</ele>
        <time>2021-05-13T20:01:25.473Z</time>
      </trkpt>
      <trkpt lat="50.5749" lon="3.43983">
        <ele>20.929322</ele>
        <time>2021-05-13T20:01:31.398Z</time>
      </trkpt>
      <trkpt lat="50.57433" lon="3.43999">
        <ele>19.947418</ele>
        <time>2021-05-13T20:01:38.083Z</time>
      </trkpt>
      <trkpt lat="50.57352" lon="3.44022">
        <ele>18.701031</ele>
        <time>2021-05-13T20:01:47.702Z</time>
      </trkpt>
      <trkpt lat="50.57338" lon="3.44026">
        <ele>18.526272</ele>
        <time>2021-05-13T20:01:49.405Z</time>
      </trkpt>
      <trkpt lat="50.5726" lon="3.44048">
        <ele>17.589394</ele>
        <time>2021-05-13T20:01:58.773Z</time>
      </trkpt>
      <trkpt lat="50.57198" lon="3.44068">
        <ele>16.90382</ele>
        <time>2021-05-13T20:02:06.448Z</time>
      </trkpt>
      <trkpt lat="50.57181" lon="3.44073">
        <ele>16.829047</ele>
        <time>2021-05-13T20:02:08.566Z</time>
      </trkpt>
      <trkpt lat="50.57069" lon="3.44105">
        <ele>16.33277</ele>
        <time>2021-05-13T20:02:23.784Z</time>
      </trkpt>
      <trkpt lat="50.57006" lon="3.44111">
        <ele>16.122025</ele>
        <time>2021-05-13T20:02:33.903Z</time>
      </trkpt>
      <trkpt lat="50.56984" lon="3.4411">
        <ele>16.085212</ele>
        <time>2021-05-13T20:02:37.378Z</time>
      </trkpt>
      <trkpt lat="50.56941" lon="3.44107">
        <ele>16.012039</ele>
        <time>2021-05-13T20:02:43.531Z</time>
      </trkpt>
      <trkpt lat="50.56897" lon="3.44104">
        <ele>15.936945</ele>
        <time>2021-05-13T20:02:49.542Z</time>
      </trkpt>
      <trkpt lat="50.56843" lon="3.441">
        <ele>15.875378</ele>
        <time>2021-05-13T20:02:56.721Z</time>
      </trkpt>
      <trkpt lat="50.56834" lon="3.44099">
        <ele>15.896631</ele>
        <time>2021-05-13T20:02:57.954Z</time>
      </trkpt>
      <trkpt lat="50.5682" lon="3.44115">
        <ele>15.937463</ele>
        <time>2021-05-13T20:03:00.109Z</time>
      </trkpt>
      <trkpt lat="50.56792" lon="3.44113">
        <ele>16.005046</ele>
        <time>2021-05-13T20:03:03.939Z</time>
      </trkpt>
      <trkpt lat="50.56778" lon="3.44115">
        <ele>16.038282</ele>
        <time>2021-05-13T20:03:05.847Z</time>
      </trkpt>
      <trkpt lat="50.56759" lon="3.44133">
        <ele>16.091494</ele>
        <time>2021-05-13T20:03:09.035Z</time>
      </trkpt>
      <trkpt lat="50.56751" lon="3.4415">
        <ele>16.123769</ele>
        <time>2021-05-13T20:03:11.514Z</time>
      </trkpt>
      <trkpt lat="50.56749" lon="3.44176">
        <ele>16.163505</ele>
        <time>2021-05-13T20:03:14.038Z</time>
      </trkpt>
      <trkpt lat="50.56741" lon="3.44282">
        <ele>16.673469</ele>
        <time>2021-05-13T20:03:26.501Z</time>
      </trkpt>
      <trkpt lat="50.56739" lon="3.44333">
        <ele>17.460098</ele>
        <time>2021-05-13T20:03:34.198Z</time>
      </trkpt>
      <trkpt lat="50.56741" lon="3.44365">
        <ele>17.941132</ele>
        <time>2021-05-13T20:03:38.909Z</time>
      </trkpt>
      <trkpt lat="50.56743" lon="3.44376">
        <ele>18.124626</ele>
        <time>2021-05-13T20:03:40.883Z</time>
      </trkpt>
      <trkpt lat="50.56753" lon="3.44464">
        <ele>19.48663</ele>
        <time>2021-05-13T20:03:54.588Z</time>
      </trkpt>
      <trkpt lat="50.56752" lon="3.44475">
        <ele>19.660036</ele>
        <time>2021-05-13T20:03:57.064Z</time>
      </trkpt>
      <trkpt lat="50.56751" lon="3.44484">
        <ele>19.805073</ele>
        <time>2021-05-13T20:03:59.229Z</time>
      </trkpt>
      <trkpt lat="50.5675" lon="3.44495">
        <ele>19.963158</ele>
        <time>2021-05-13T20:04:01.016Z</time>
      </trkpt>
      <trkpt lat="50.56752" lon="3.44504">
        <ele>20.119202</ele>
        <time>2021-05-13T20:04:02.509Z</time>
      </trkpt>
      <trkpt lat="50.56758" lon="3.4453">
        <ele>20.540255</ele>
        <time>2021-05-13T20:04:07.459Z</time>
      </trkpt>
      <trkpt lat="50.56765" lon="3.44531">
        <ele>20.758473</ele>
        <time>2021-05-13T20:04:09.952Z</time>
      </trkpt>
      <trkpt lat="50.56769" lon="3.44538">
        <ele>20.97368</ele>
        <time>2021-05-13T20:04:11.577Z</time>
      </trkpt>
      <trkpt lat="50.56808" lon="3.44591">
        <ele>22.869461</ele>
        <time>2021-05-13T20:04:25.376Z</time>
      </trkpt>
      <trkpt lat="50.56822" lon="3.44607">
        <ele>23.484196</ele>
        <time>2021-05-13T20:04:30.825Z</time>
      </trkpt>
      <trkpt lat="50.56826" lon="3.44612">
        <ele>23.683835</ele>
        <time>2021-05-13T20:04:32.302Z</time>
      </trkpt>
      <trkpt lat="50.56834" lon="3.44621">
        <ele>24.031491</ele>
        <time>2021-05-13T20:04:34.557Z</time>
      </trkpt>
      <trkpt lat="50.56838" lon="3.44627">
        <ele>24.239795</ele>
        <time>2021-05-13T20:04:36.607Z</time>
      </trkpt>
      <trkpt lat="50.56839" lon="3.44628">
        <ele>24.285275</ele>
        <time>2021-05-13T20:04:37.091Z</time>
      </trkpt>
      <trkpt lat="50.56839" lon="3.44632">
        <ele>24.373943</ele>
        <time>2021-05-13T20:04:38.063Z</time>
      </trkpt>
      <trkpt lat="50.56839" lon="3.4464">
        <ele>24.55282</ele>
        <time>2021-05-13T20:04:39.980Z</time>
      </trkpt>
      <trkpt lat="50.56808" lon="3.44779">
        <ele>28.000819</ele>
        <time>2021-05-13T20:05:07.701Z</time>
      </trkpt>
      <trkpt lat="50.56806" lon="3.44794">
        <ele>28.378542</ele>
        <time>2021-05-13T20:05:11.185Z</time>
      </trkpt>
      <trkpt lat="50.568" lon="3.44821">
        <ele>29.072972</ele>
        <time>2021-05-13T20:05:16.760Z</time>
      </trkpt>
      <trkpt lat="50.56797" lon="3.44836">
        <ele>29.442109</ele>
        <time>2021-05-13T20:05:19.613Z</time>
      </trkpt>
      <trkpt lat="50.56777" lon="3.44929">
        <ele>31.830144</ele>
        <time>2021-05-13T20:05:38.558Z</time>
      </trkpt>
      <trkpt lat="50.56772" lon="3.44953">
        <ele>32.427948</ele>
        <time>2021-05-13T20:05:43.619Z</time>
      </trkpt>
      <trkpt lat="50.56772" lon="3.4497">
        <ele>32.854248</ele>
        <time>2021-05-13T20:05:46.892Z</time>
      </trkpt>
      <trkpt lat="50.56771" lon="3.44976">
        <ele>32.986343</ele>
        <time>2021-05-13T20:05:47.868Z</time>
      </trkpt>
      <trkpt lat="50.5677" lon="3.44998">
        <ele>33.539194</ele>
        <time>2021-05-13T20:05:52.239Z</time>
      </trkpt>
      <trkpt lat="50.56768" lon="3.45008">
        <ele>33.790795</ele>
        <time>2021-05-13T20:05:54.408Z</time>
      </trkpt>
      <trkpt lat="50.56753" lon="3.45073">
        <ele>34.813362</ele>
        <time>2021-05-13T20:06:06.916Z</time>
      </trkpt>
      <trkpt lat="50.56742" lon="3.45119">
        <ele>35.468107</ele>
        <time>2021-05-13T20:06:15.006Z</time>
      </trkpt>
      <trkpt lat="50.56736" lon="3.45141">
        <ele>35.78597</ele>
        <time>2021-05-13T20:06:18.765Z</time>
      </trkpt>
      <trkpt lat="50.56734" lon="3.4516">
        <ele>36.044184</ele>
        <time>2021-05-13T20:06:21.567Z</time>
      </trkpt>
      <trkpt lat="50.56726" lon="3.45246">
        <ele>37.184742</ele>
        <time>2021-05-13T20:06:32.029Z</time>
      </trkpt>
      <trkpt lat="50.56725" lon="3.45255">
        <ele>37.310051</ele>
        <time>2021-05-13T20:06:33.468Z</time>
      </trkpt>
      <trkpt lat="50.56721" lon="3.45288">
        <ele>37.754457</ele>
        <time>2021-05-13T20:06:37.335Z</time>
      </trkpt>
      <trkpt lat="50.56717" lon="3.45305">
        <ele>37.838358</ele>
        <time>2021-05-13T20:06:39.579Z</time>
      </trkpt>
      <trkpt lat="50.56692" lon="3.45358">
        <ele>38.016245</ele>
        <time>2021-05-13T20:06:47.315Z</time>
      </trkpt>
      <trkpt lat="50.56687" lon="3.45375">
        <ele>38.065511</ele>
        <time>2021-05-13T20:06:49.364Z</time>
      </trkpt>
      <trkpt lat="50.56678" lon="3.45402">
        <ele>38.149945</ele>
        <time>2021-05-13T20:06:52.529Z</time>
      </trkpt>
      <trkpt lat="50.56672" lon="3.45419">
        <ele>38.199603</ele>
        <time>2021-05-13T20:06:54.408Z</time>
      </trkpt>
      <trkpt lat="50.56666" lon="3.45446">
        <ele>38.279115</ele>
        <time>2021-05-13T20:06:57.161Z</time>
      </trkpt>
      <trkpt lat="50.56661" lon="3.45471">
        <ele>38.350428</ele>
        <time>2021-05-13T20:07:00.897Z</time>
      </trkpt>
      <trkpt lat="50.5666" lon="3.45477">
        <ele>38.366685</ele>
        <time>2021-05-13T20:07:01.731Z</time>
      </trkpt>
      <trkpt lat="50.56657" lon="3.45526">
        <ele>38.49786</ele>
        <time>2021-05-13T20:07:07.922Z</time>
      </trkpt>
      <trkpt lat="50.56654" lon="3.45624">
        <ele>38.760005</ele>
        <time>2021-05-13T20:07:20.425Z</time>
      </trkpt>
      <trkpt lat="50.56653" lon="3.45662">
        <ele>38.858919</ele>
        <time>2021-05-13T20:07:25.551Z</time>
      </trkpt>
      <trkpt lat="50.56652" lon="3.45698">
        <ele>38.954251</ele>
        <time>2021-05-13T20:07:30.586Z</time>
      </trkpt>
      <trkpt lat="50.56648" lon="3.45704">
        <ele>38.977735</ele>
        <time>2021-05-13T20:07:31.880Z</time>
      </trkpt>
      <trkpt lat="50.5663" lon="3.45745">
        <ele>39.108959</ele>
        <time>2021-05-13T20:07:39.017Z</time>
      </trkpt>
      <trkpt lat="50.5664" lon="3.45755">
        <ele>39.15852</ele>
        <time>2021-05-13T20:07:41.790Z</time>
      </trkpt>
      <trkpt lat="50.56638" lon="3.45759">
        <ele>39.170599</ele>
        <time>2021-05-13T20:07:42.472Z</time>
      </trkpt>
      <trkpt lat="50.5664" lon="3.45761">
        <ele>39.182583</ele>
        <time>2021-05-13T20:07:43.141Z</time>
      </trkpt>
      <trkpt lat="50.56646" lon="3.45768">
        <ele>39.212963</ele>
        <time>2021-05-13T20:07:44.790Z</time>
      </trkpt>
      <trkpt lat="50.56648" lon="3.45762">
        <ele>39.230392</ele>
        <time>2021-05-13T20:07:45.737Z</time>
      </trkpt>
      <trkpt lat="50.56657" lon="3.45755">
        <ele>39.27083</ele>
        <time>2021-05-13T20:07:47.978Z</time>
      </trkpt>
      <trkpt lat="50.56666" lon="3.45768">
        <ele>39.3303</ele>
        <time>2021-05-13T20:07:50.833Z</time>
      </trkpt>
      <trkpt lat="50.56663" lon="3.45781">
        <ele>39.401507</ele>
        <time>2021-05-13T20:07:52.912Z</time>
      </trkpt>
      <trkpt lat="50.56653" lon="3.45787">
        <ele>39.486119</ele>
        <time>2021-05-13T20:07:55.391Z</time>
      </trkpt>
      <trkpt lat="50.5665" lon="3.45791">
        <ele>39.517456</ele>
        <time>2021-05-13T20:07:56.340Z</time>
      </trkpt>
      <trkpt lat="50.56646" lon="3.45858">
        <ele>39.853215</ele>
        <time>2021-05-13T20:08:06.577Z</time>
      </trkpt>
      <trkpt lat="50.56642" lon="3.45932">
        <ele>40.221849</ele>
        <time>2021-05-13T20:08:17.630Z</time>
      </trkpt>
      <trkpt lat="50.56638" lon="3.46002">
        <ele>40.576564</ele>
        <time>2021-05-13T20:08:27.982Z</time>
      </trkpt>
      <trkpt lat="50.56638" lon="3.461">
        <ele>40.743748</ele>
        <time>2021-05-13T20:08:42.626Z</time>
      </trkpt>
      <trkpt lat="50.5666" lon="3.46104">
        <ele>40.750616</ele>
        <time>2021-05-13T20:08:47.435Z</time>
      </trkpt>
      <trkpt lat="50.56658" lon="3.46128">
        <ele>40.75549</ele>
        <time>2021-05-13T20:08:49.876Z</time>
      </trkpt>
      <trkpt lat="50.56658" lon="3.46212">
        <ele>40.771795</ele>
        <time>2021-05-13T20:08:57.339Z</time>
      </trkpt>
      <trkpt lat="50.56658" lon="3.46245">
        <ele>40.778275</ele>
        <time>2021-05-13T20:09:00.166Z</time>
      </trkpt>
      <trkpt lat="50.56659" lon="3.46263">
        <ele>40.781784</ele>
        <time>2021-05-13T20:09:01.687Z</time>
      </trkpt>
      <trkpt lat="50.56659" lon="3.46275">
        <ele>40.784293</ele>
        <time>2021-05-13T20:09:02.781Z</time>
      </trkpt>
      <trkpt lat="50.5666" lon="3.46305">
        <ele>40.761606</ele>
        <time>2021-05-13T20:09:05.221Z</time>
      </trkpt>
      <trkpt lat="50.56661" lon="3.46326">
        <ele>40.737818</ele>
        <time>2021-05-13T20:09:06.928Z</time>
      </trkpt>
      <trkpt lat="50.56664" lon="3.46351">
        <ele>40.70799</ele>
        <time>2021-05-13T20:09:09.045Z</time>
      </trkpt>
      <trkpt lat="50.56668" lon="3.46401">
        <ele>40.651221</ele>
        <time>2021-05-13T20:09:13.207Z</time>
      </trkpt>
      <trkpt lat="50.56671" lon="3.46437">
        <ele>40.608528</ele>
        <time>2021-05-13T20:09:16.669Z</time>
      </trkpt>
      <trkpt lat="50.56675" lon="3.46474">
        <ele>40.565836</ele>
        <time>2021-05-13T20:09:20.069Z</time>
      </trkpt>
      <trkpt lat="50.5668" lon="3.46522">
        <ele>40.509925</ele>
        <time>2021-05-13T20:09:24.570Z</time>
      </trkpt>
      <trkpt lat="50.56686" lon="3.46567">
        <ele>40.477952</ele>
        <time>2021-05-13T20:09:29.173Z</time>
      </trkpt>
      <trkpt lat="50.56689" lon="3.46595">
        <ele>40.606195</ele>
        <time>2021-05-13T20:09:32.092Z</time>
      </trkpt>
      <trkpt lat="50.56691" lon="3.4661">
        <ele>40.6743</ele>
        <time>2021-05-13T20:09:33.811Z</time>
      </trkpt>
      <trkpt lat="50.56694" lon="3.46624">
        <ele>40.738611</ele>
        <time>2021-05-13T20:09:35.252Z</time>
      </trkpt>
      <trkpt lat="50.56699" lon="3.46663">
        <ele>40.922585</ele>
        <time>2021-05-13T20:09:39.869Z</time>
      </trkpt>
      <trkpt lat="50.56713" lon="3.46753">
        <ele>41.338333</ele>
        <time>2021-05-13T20:09:50.429Z</time>
      </trkpt>
      <trkpt lat="50.56717" lon="3.46782">
        <ele>41.473219</ele>
        <time>2021-05-13T20:09:54.127Z</time>
      </trkpt>
      <trkpt lat="50.56742" lon="3.46947">
        <ele>42.151659</ele>
        <time>2021-05-13T20:10:13.982Z</time>
      </trkpt>
      <trkpt lat="50.56742" lon="3.47048">
        <ele>42.525718</ele>
        <time>2021-05-13T20:10:24.711Z</time>
      </trkpt>
      <trkpt lat="50.56732" lon="3.47191">
        <ele>42.987164</ele>
        <time>2021-05-13T20:10:39.180Z</time>
      </trkpt>
      <trkpt lat="50.56769" lon="3.47349">
        <ele>43.436715</ele>
        <time>2021-05-13T20:10:56.638Z</time>
      </trkpt>
      <trkpt lat="50.56774" lon="3.47365">
        <ele>43.483751</ele>
        <time>2021-05-13T20:10:58.582Z</time>
      </trkpt>
      <trkpt lat="50.56807" lon="3.47489">
        <ele>44.200263</ele>
        <time>2021-05-13T20:11:14.345Z</time>
      </trkpt>
      <trkpt lat="50.56812" lon="3.47507">
        <ele>44.31609</ele>
        <time>2021-05-13T20:11:16.591Z</time>
      </trkpt>
      <trkpt lat="50.56815" lon="3.47518">
        <ele>44.391748</ele>
        <time>2021-05-13T20:11:17.976Z</time>
      </trkpt>
      <trkpt lat="50.5682" lon="3.47528">
        <ele>44.467954</ele>
        <time>2021-05-13T20:11:19.793Z</time>
      </trkpt>
      <trkpt lat="50.56838" lon="3.47544">
        <ele>44.662398</ele>
        <time>2021-05-13T20:11:23.593Z</time>
      </trkpt>
      <trkpt lat="50.56882" lon="3.47565">
        <ele>45.091913</ele>
        <time>2021-05-13T20:11:32.275Z</time>
      </trkpt>
      <trkpt lat="50.569" lon="3.47571">
        <ele>45.25613</ele>
        <time>2021-05-13T20:11:35.963Z</time>
      </trkpt>
      <trkpt lat="50.56943" lon="3.476">
        <ele>45.553108</ele>
        <time>2021-05-13T20:11:44.590Z</time>
      </trkpt>
      <trkpt lat="50.56963" lon="3.47614">
        <ele>45.692393</ele>
        <time>2021-05-13T20:11:48.844Z</time>
      </trkpt>
      <trkpt lat="50.57008" lon="3.47669">
        <ele>46.058954</ele>
        <time>2021-05-13T20:11:58.533Z</time>
      </trkpt>
      <trkpt lat="50.57079" lon="3.47757">
        <ele>46.463722</ele>
        <time>2021-05-13T20:12:12.742Z</time>
      </trkpt>
      <trkpt lat="50.57106" lon="3.47799">
        <ele>46.541616</ele>
        <time>2021-05-13T20:12:18.454Z</time>
      </trkpt>
      <trkpt lat="50.57133" lon="3.47873">
        <ele>46.6524</ele>
        <time>2021-05-13T20:12:26.408Z</time>
      </trkpt>
      <trkpt lat="50.57171" lon="3.48065">
        <ele>47.399073</ele>
        <time>2021-05-13T20:12:47.891Z</time>
      </trkpt>
      <trkpt lat="50.57175" lon="3.4809">
        <ele>47.531046</ele>
        <time>2021-05-13T20:12:50.589Z</time>
      </trkpt>
      <trkpt lat="50.57179" lon="3.48099">
        <ele>47.591613</ele>
        <time>2021-05-13T20:12:52.255Z</time>
      </trkpt>
      <trkpt lat="50.57191" lon="3.48156">
        <ele>47.907287</ele>
        <time>2021-05-13T20:12:59.505Z</time>
      </trkpt>
      <trkpt lat="50.57235" lon="3.48362">
        <ele>49.163497</ele>
        <time>2021-05-13T20:13:27.261Z</time>
      </trkpt>
      <trkpt lat="50.5724" lon="3.48391">
        <ele>49.3441</ele>
        <time>2021-05-13T20:13:30.790Z</time>
      </trkpt>
      <trkpt lat="50.57246" lon="3.48417">
        <ele>49.508655</ele>
        <time>2021-05-13T20:13:33.762Z</time>
      </trkpt>
      <trkpt lat="50.57252" lon="3.48448">
        <ele>49.704766</ele>
        <time>2021-05-13T20:13:37.391Z</time>
      </trkpt>
      <trkpt lat="50.57263" lon="3.48501">
        <ele>49.905107</ele>
        <time>2021-05-13T20:13:43.206Z</time>
      </trkpt>
      <trkpt lat="50.57284" lon="3.48598">
        <ele>49.772732</ele>
        <time>2021-05-13T20:13:52.965Z</time>
      </trkpt>
      <trkpt lat="50.57308" lon="3.48672">
        <ele>49.663828</ele>
        <time>2021-05-13T20:14:00.125Z</time>
      </trkpt>
      <trkpt lat="50.57351" lon="3.48791">
        <ele>49.394443</ele>
        <time>2021-05-13T20:14:11.366Z</time>
      </trkpt>
      <trkpt lat="50.57355" lon="3.4881">
        <ele>49.337174</ele>
        <time>2021-05-13T20:14:13.050Z</time>
      </trkpt>
      <trkpt lat="50.57356" lon="3.48832">
        <ele>49.273667</ele>
        <time>2021-05-13T20:14:14.928Z</time>
      </trkpt>
      <trkpt lat="50.57371" lon="3.49041">
        <ele>48.636397</ele>
        <time>2021-05-13T20:14:33.052Z</time>
      </trkpt>
      <trkpt lat="50.57367" lon="3.4924">
        <ele>47.79492</ele>
        <time>2021-05-13T20:14:49.943Z</time>
      </trkpt>
      <trkpt lat="50.57353" lon="3.49349">
        <ele>47.061697</ele>
        <time>2021-05-13T20:14:58.422Z</time>
      </trkpt>
      <trkpt lat="50.57352" lon="3.49352">
        <ele>47.036809</ele>
        <time>2021-05-13T20:14:58.612Z</time>
      </trkpt>
      <trkpt lat="50.57345" lon="3.49402">
        <ele>46.573223</ele>
        <time>2021-05-13T20:15:02.462Z</time>
      </trkpt>
      <trkpt lat="50.57337" lon="3.49452">
        <ele>46.116948</ele>
        <time>2021-05-13T20:15:06.203Z</time>
      </trkpt>
      <trkpt lat="50.57327" lon="3.49498">
        <ele>45.678522</ele>
        <time>2021-05-13T20:15:09.769Z</time>
      </trkpt>
      <trkpt lat="50.57319" lon="3.49531">
        <ele>45.358434</ele>
        <time>2021-05-13T20:15:12.320Z</time>
      </trkpt>
      <trkpt lat="50.57284" lon="3.4967">
        <ele>44.59377</ele>
        <time>2021-05-13T20:15:23.400Z</time>
      </trkpt>
      <trkpt lat="50.57263" lon="3.49779">
        <ele>44.164044</ele>
        <time>2021-05-13T20:15:32.964Z</time>
      </trkpt>
      <trkpt lat="50.57228" lon="3.49855">
        <ele>44.198525</ele>
        <time>2021-05-13T20:15:42.689Z</time>
      </trkpt>
      <trkpt lat="50.57206" lon="3.49931">
        <ele>44.807378</ele>
        <time>2021-05-13T20:15:52.357Z</time>
      </trkpt>
      <trkpt lat="50.57196" lon="3.49999">
        <ele>45.319564</ele>
        <time>2021-05-13T20:16:01.435Z</time>
      </trkpt>
      <trkpt lat="50.57192" lon="3.50024">
        <ele>45.508517</ele>
        <time>2021-05-13T20:16:04.852Z</time>
      </trkpt>
      <trkpt lat="50.57182" lon="3.50145">
        <ele>46.653963</ele>
        <time>2021-05-13T20:16:21.873Z</time>
      </trkpt>
      <trkpt lat="50.57156" lon="3.5045">
        <ele>50.229213</ele>
        <time>2021-05-13T20:17:06.290Z</time>
      </trkpt>
      <trkpt lat="50.57148" lon="3.50513">
        <ele>50.881912</ele>
        <time>2021-05-13T20:17:14.977Z</time>
      </trkpt>
      <trkpt lat="50.57134" lon="3.50564">
        <ele>51.457041</ele>
        <time>2021-05-13T20:17:22.395Z</time>
      </trkpt>
      <trkpt lat="50.57119" lon="3.50602">
        <ele>51.914915</ele>
        <time>2021-05-13T20:17:28.273Z</time>
      </trkpt>
      <trkpt lat="50.57116" lon="3.50608">
        <ele>51.991214</ele>
        <time>2021-05-13T20:17:29.196Z</time>
      </trkpt>
      <trkpt lat="50.57108" lon="3.50627">
        <ele>52.234072</ele>
        <time>2021-05-13T20:17:32.409Z</time>
      </trkpt>
      <trkpt lat="50.57049" lon="3.50764">
        <ele>53.423726</ele>
        <time>2021-05-13T20:17:53.123Z</time>
      </trkpt>
      <trkpt lat="50.57018" lon="3.50841">
        <ele>54.057097</ele>
        <time>2021-05-13T20:18:03.917Z</time>
      </trkpt>
      <trkpt lat="50.57006" lon="3.50892">
        <ele>54.430651</ele>
        <time>2021-05-13T20:18:10.139Z</time>
      </trkpt>
      <trkpt lat="50.5693" lon="3.51074">
        <ele>55.854342</ele>
        <time>2021-05-13T20:18:35.676Z</time>
      </trkpt>
      <trkpt lat="50.56911" lon="3.51128">
        <ele>56.320704</ele>
        <time>2021-05-13T20:18:43.314Z</time>
      </trkpt>
      <trkpt lat="50.56841" lon="3.51469">
        <ele>60.303523</ele>
        <time>2021-05-13T20:19:33.863Z</time>
      </trkpt>
      <trkpt lat="50.56739" lon="3.51749">
        <ele>63.249437</ele>
        <time>2021-05-13T20:20:19.558Z</time>
      </trkpt>
      <trkpt lat="50.56716" lon="3.5185">
        <ele>63.806457</ele>
        <time>2021-05-13T20:20:31.113Z</time>
      </trkpt>
      <trkpt lat="50.56698" lon="3.5189">
        <ele>64.037711</ele>
        <time>2021-05-13T20:20:35.313Z</time>
      </trkpt>
      <trkpt lat="50.56657" lon="3.51941">
        <ele>63.02063</ele>
        <time>2021-05-13T20:20:41.665Z</time>
      </trkpt>
      <trkpt lat="50.5662" lon="3.51987">
        <ele>62.100436</ele>
        <time>2021-05-13T20:20:46.913Z</time>
      </trkpt>
      <trkpt lat="50.56475" lon="3.52163">
        <ele>57.598214</ele>
        <time>2021-05-13T20:21:05.800Z</time>
      </trkpt>
      <trkpt lat="50.56391" lon="3.52302">
        <ele>54.443217</ele>
        <time>2021-05-13T20:21:18.482Z</time>
      </trkpt>
      <trkpt lat="50.5638" lon="3.52322">
        <ele>54.083887</ele>
        <time>2021-05-13T20:21:20.190Z</time>
      </trkpt>
      <trkpt lat="50.56348" lon="3.52349">
        <ele>53.27827</ele>
        <time>2021-05-13T20:21:24.166Z</time>
      </trkpt>
      <trkpt lat="50.56327" lon="3.52359">
        <ele>52.803091</ele>
        <time>2021-05-13T20:21:26.593Z</time>
      </trkpt>
      <trkpt lat="50.56239" lon="3.52388">
        <ele>51.126783</ele>
        <time>2021-05-13T20:21:36.589Z</time>
      </trkpt>
      <trkpt lat="50.56199" lon="3.52401">
        <ele>50.622399</ele>
        <time>2021-05-13T20:21:41.529Z</time>
      </trkpt>
      <trkpt lat="50.56156" lon="3.52421">
        <ele>50.064082</ele>
        <time>2021-05-13T20:21:47.006Z</time>
      </trkpt>
      <trkpt lat="50.56116" lon="3.5246">
        <ele>49.489227</ele>
        <time>2021-05-13T20:21:52.645Z</time>
      </trkpt>
      <trkpt lat="50.55856" lon="3.5273">
        <ele>46.783611</ele>
        <time>2021-05-13T20:22:31.541Z</time>
      </trkpt>
      <trkpt lat="50.5581" lon="3.52787">
        <ele>46.315793</ele>
        <time>2021-05-13T20:22:39.013Z</time>
      </trkpt>
      <trkpt lat="50.55777" lon="3.52837">
        <ele>46.069324</ele>
        <time>2021-05-13T20:22:44.861Z</time>
      </trkpt>
      <trkpt lat="50.55743" lon="3.52884">
        <ele>45.841957</ele>
        <time>2021-05-13T20:22:50.799Z</time>
      </trkpt>
      <trkpt lat="50.55682" lon="3.52957">
        <ele>45.459436</ele>
        <time>2021-05-13T20:23:01.087Z</time>
      </trkpt>
      <trkpt lat="50.55639" lon="3.5301">
        <ele>45.348928</ele>
        <time>2021-05-13T20:23:08.741Z</time>
      </trkpt>
      <trkpt lat="50.55591" lon="3.53067">
        <ele>45.322537</ele>
        <time>2021-05-13T20:23:17.430Z</time>
      </trkpt>
      <trkpt lat="50.5552" lon="3.53134">
        <ele>45.286126</ele>
        <time>2021-05-13T20:23:29.941Z</time>
      </trkpt>
      <trkpt lat="50.55504" lon="3.53147">
        <ele>45.405791</ele>
        <time>2021-05-13T20:23:32.689Z</time>
      </trkpt>
      <trkpt lat="50.55494" lon="3.53155">
        <ele>45.492477</ele>
        <time>2021-05-13T20:23:34.506Z</time>
      </trkpt>
      <trkpt lat="50.5548" lon="3.53169">
        <ele>45.60739</ele>
        <time>2021-05-13T20:23:37.056Z</time>
      </trkpt>
      <trkpt lat="50.55475" lon="3.53174">
        <ele>45.652254</ele>
        <time>2021-05-13T20:23:38.069Z</time>
      </trkpt>
      <trkpt lat="50.55477" lon="3.53191">
        <ele>45.72952</ele>
        <time>2021-05-13T20:23:39.874Z</time>
      </trkpt>
      <trkpt lat="50.5545" lon="3.53366">
        <ele>46.555353</ele>
        <time>2021-05-13T20:24:01.219Z</time>
      </trkpt>
      <trkpt lat="50.55444" lon="3.53394">
        <ele>46.766342</ele>
        <time>2021-05-13T20:24:04.999Z</time>
      </trkpt>
      <trkpt lat="50.55435" lon="3.53459">
        <ele>47.274912</ele>
        <time>2021-05-13T20:24:13.313Z</time>
      </trkpt>
      <trkpt lat="50.55371" lon="3.53457">
        <ele>48.049912</ele>
        <time>2021-05-13T20:24:25.789Z</time>
      </trkpt>
      <trkpt lat="50.5537" lon="3.53457">
        <ele>48.072396</ele>
        <time>2021-05-13T20:24:26.421Z</time>
      </trkpt>
      <trkpt lat="50.55336" lon="3.53445">
        <ele>48.490893</ele>
        <time>2021-05-13T20:24:33.384Z</time>
      </trkpt>
      <trkpt lat="50.55328" lon="3.53442">
        <ele>48.584024</ele>
        <time>2021-05-13T20:24:35.230Z</time>
      </trkpt>
      <trkpt lat="50.55253" lon="3.53409">
        <ele>49.361823</ele>
        <time>2021-05-13T20:24:50.137Z</time>
      </trkpt>
      <trkpt lat="50.55238" lon="3.53401">
        <ele>49.514011</ele>
        <time>2021-05-13T20:24:52.897Z</time>
      </trkpt>
      <trkpt lat="50.55216" lon="3.53413">
        <ele>49.730774</ele>
        <time>2021-05-13T20:24:57.109Z</time>
      </trkpt>
      <trkpt lat="50.55192" lon="3.53434">
        <ele>49.995142</ele>
        <time>2021-05-13T20:25:02.142Z</time>
      </trkpt>
      <trkpt lat="50.55129" lon="3.53585">
        <ele>50.861029</ele>
        <time>2021-05-13T20:25:22.870Z</time>
      </trkpt>
      <trkpt lat="50.55114" lon="3.53594">
        <ele>50.958259</ele>
        <time>2021-05-13T20:25:25.538Z</time>
      </trkpt>
      <trkpt lat="50.55102" lon="3.53608">
        <ele>51.044766</ele>
        <time>2021-05-13T20:25:28.154Z</time>
      </trkpt>
      <trkpt lat="50.55058" lon="3.5369">
        <ele>51.457129</ele>
        <time>2021-05-13T20:25:39.750Z</time>
      </trkpt>
      <trkpt lat="50.55033" lon="3.53709">
        <ele>51.595714</ele>
        <time>2021-05-13T20:25:44.288Z</time>
      </trkpt>
      <trkpt lat="50.54964" lon="3.53741">
        <ele>51.854807</ele>
        <time>2021-05-13T20:25:56.049Z</time>
      </trkpt>
      <trkpt lat="50.54937" lon="3.53764">
        <ele>51.965667</ele>
        <time>2021-05-13T20:26:01.040Z</time>
      </trkpt>
      <trkpt lat="50.54915" lon="3.53791">
        <ele>52.065547</ele>
        <time>2021-05-13T20:26:05.512Z</time>
      </trkpt>
      <trkpt lat="50.5488" lon="3.53851">
        <ele>52.260722</ele>
        <time>2021-05-13T20:26:13.679Z</time>
      </trkpt>
      <trkpt lat="50.54853" lon="3.53884">
        <ele>52.410452</ele>
        <time>2021-05-13T20:26:19.233Z</time>
      </trkpt>
      <trkpt lat="50.54829" lon="3.53899">
        <ele>52.52433</ele>
        <time>2021-05-13T20:26:23.715Z</time>
      </trkpt>
      <trkpt lat="50.54803" lon="3.53902">
        <ele>52.638412</ele>
        <time>2021-05-13T20:26:28.264Z</time>
      </trkpt>
      <trkpt lat="50.54777" lon="3.53894">
        <ele>52.75516</ele>
        <time>2021-05-13T20:26:33.193Z</time>
      </trkpt>
      <trkpt lat="50.54703" lon="3.5386">
        <ele>52.824894</ele>
        <time>2021-05-13T20:26:45.546Z</time>
      </trkpt>
      <trkpt lat="50.54624" lon="3.53825">
        <ele>52.276042</ele>
        <time>2021-05-13T20:26:56.431Z</time>
      </trkpt>
      <trkpt lat="50.54596" lon="3.53811">
        <ele>52.074431</ele>
        <time>2021-05-13T20:26:59.968Z</time>
      </trkpt>
      <trkpt lat="50.5453" lon="3.53779">
        <ele>51.419262</ele>
        <time>2021-05-13T20:27:08.154Z</time>
      </trkpt>
      <trkpt lat="50.545" lon="3.53765">
        <ele>50.975744</ele>
        <time>2021-05-13T20:27:11.648Z</time>
      </trkpt>
      <trkpt lat="50.54467" lon="3.53734">
        <ele>50.418643</ele>
        <time>2021-05-13T20:27:15.971Z</time>
      </trkpt>
      <trkpt lat="50.54459" lon="3.53725">
        <ele>50.288333</ele>
        <time>2021-05-13T20:27:16.970Z</time>
      </trkpt>
      <trkpt lat="50.54349" lon="3.53863">
        <ele>48.696242</ele>
        <time>2021-05-13T20:27:40.878Z</time>
      </trkpt>
      <trkpt lat="50.54326" lon="3.53894">
        <ele>48.461245</ele>
        <time>2021-05-13T20:27:46.461Z</time>
      </trkpt>
      <trkpt lat="50.5428" lon="3.53977">
        <ele>47.920422</ele>
        <time>2021-05-13T20:27:59.403Z</time>
      </trkpt>
      <trkpt lat="50.54188" lon="3.54225">
        <ele>47.447759</ele>
        <time>2021-05-13T20:28:34.549Z</time>
      </trkpt>
      <trkpt lat="50.54117" lon="3.54366">
        <ele>47.53429</ele>
        <time>2021-05-13T20:28:58.685Z</time>
      </trkpt>
      <trkpt lat="50.54093" lon="3.54426">
        <ele>47.584135</ele>
        <time>2021-05-13T20:29:08.404Z</time>
      </trkpt>
      <trkpt lat="50.54011" lon="3.54358">
        <ele>47.1081</ele>
        <time>2021-05-13T20:29:26.562Z</time>
      </trkpt>
      <trkpt lat="50.54011" lon="3.54358">
        <ele>47.1081</ele>
        <time>2021-05-13T20:29:26.614Z</time>
      </trkpt>
      <trkpt lat="50.53985" lon="3.54339">
        <ele>46.863521</ele>
        <time>2021-05-13T20:29:31.691Z</time>
      </trkpt>
      <trkpt lat="50.53958" lon="3.54335">
        <ele>46.629364</ele>
        <time>2021-05-13T20:29:36.458Z</time>
      </trkpt>
      <trkpt lat="50.53932" lon="3.54346">
        <ele>46.400827</ele>
        <time>2021-05-13T20:29:41.012Z</time>
      </trkpt>
      <trkpt lat="50.53806" lon="3.54383">
        <ele>44.504949</ele>
        <time>2021-05-13T20:30:01.727Z</time>
      </trkpt>
      <trkpt lat="50.53702" lon="3.54414">
        <ele>42.767377</ele>
        <time>2021-05-13T20:30:18.567Z</time>
      </trkpt>
      <trkpt lat="50.53683" lon="3.5442">
        <ele>42.527164</ele>
        <time>2021-05-13T20:30:21.744Z</time>
      </trkpt>
      <trkpt lat="50.53548" lon="3.54558">
        <ele>40.587819</ele>
        <time>2021-05-13T20:30:49.452Z</time>
      </trkpt>
      <trkpt lat="50.53484" lon="3.5462">
        <ele>39.92773</ele>
        <time>2021-05-13T20:31:02.689Z</time>
      </trkpt>
      <trkpt lat="50.53432" lon="3.54692">
        <ele>39.319476</ele>
        <time>2021-05-13T20:31:14.807Z</time>
      </trkpt>
      <trkpt lat="50.53327" lon="3.54795">
        <ele>38.639025</ele>
        <time>2021-05-13T20:31:37.294Z</time>
      </trkpt>
      <trkpt lat="50.53323" lon="3.54801">
        <ele>38.609311</ele>
        <time>2021-05-13T20:31:38.271Z</time>
      </trkpt>
      <trkpt lat="50.53349" lon="3.54828">
        <ele>38.454807</ele>
        <time>2021-05-13T20:31:42.665Z</time>
      </trkpt>
      <trkpt lat="50.53357" lon="3.54834">
        <ele>38.409004</ele>
        <time>2021-05-13T20:31:43.820Z</time>
      </trkpt>
      <trkpt lat="50.53396" lon="3.54866">
        <ele>38.283308</ele>
        <time>2021-05-13T20:31:50.128Z</time>
      </trkpt>
      <trkpt lat="50.53435" lon="3.54913">
        <ele>38.326051</ele>
        <time>2021-05-13T20:31:57.496Z</time>
      </trkpt>
      <trkpt lat="50.53468" lon="3.54993">
        <ele>38.378678</ele>
        <time>2021-05-13T20:32:06.996Z</time>
      </trkpt>
      <trkpt lat="50.53468" lon="3.54993">
        <ele>38.378678</ele>
        <time>2021-05-13T20:32:07.015Z</time>
      </trkpt>
      <trkpt lat="50.53494" lon="3.55078">
        <ele>38.446003</ele>
        <time>2021-05-13T20:32:16.442Z</time>
      </trkpt>
      <trkpt lat="50.53606" lon="3.55286">
        <ele>39.055934</ele>
        <time>2021-05-13T20:32:44.281Z</time>
      </trkpt>
      <trkpt lat="50.53659" lon="3.55356">
        <ele>39.460716</ele>
        <time>2021-05-13T20:32:56.279Z</time>
      </trkpt>
      <trkpt lat="50.53748" lon="3.55442">
        <ele>40.077076</ele>
        <time>2021-05-13T20:33:15.004Z</time>
      </trkpt>
      <trkpt lat="50.53758" lon="3.555">
        <ele>39.993062</ele>
        <time>2021-05-13T20:33:21.339Z</time>
      </trkpt>
      <trkpt lat="50.53757" lon="3.55524">
        <ele>39.930682</ele>
        <time>2021-05-13T20:33:23.914Z</time>
      </trkpt>
      <trkpt lat="50.53721" lon="3.55625">
        <ele>39.636024</ele>
        <time>2021-05-13T20:33:33.693Z</time>
      </trkpt>
      <trkpt lat="50.53697" lon="3.5568">
        <ele>39.463507</ele>
        <time>2021-05-13T20:33:39.039Z</time>
      </trkpt>
      <trkpt lat="50.53675" lon="3.55724">
        <ele>39.137852</ele>
        <time>2021-05-13T20:33:43.297Z</time>
      </trkpt>
      <trkpt lat="50.5366" lon="3.5574">
        <ele>38.879683</ele>
        <time>2021-05-13T20:33:45.325Z</time>
      </trkpt>
      <trkpt lat="50.53629" lon="3.55775">
        <ele>38.337535</ele>
        <time>2021-05-13T20:33:49.687Z</time>
      </trkpt>
      <trkpt lat="50.53562" lon="3.5583">
        <ele>37.266274</ele>
        <time>2021-05-13T20:33:58.268Z</time>
      </trkpt>
      <trkpt lat="50.53491" lon="3.55901">
        <ele>36.187875</ele>
        <time>2021-05-13T20:34:08.238Z</time>
      </trkpt>
      <trkpt lat="50.5345" lon="3.55959">
        <ele>35.536371</ele>
        <time>2021-05-13T20:34:14.797Z</time>
      </trkpt>
      <trkpt lat="50.53409" lon="3.5603">
        <ele>34.80566</ele>
        <time>2021-05-13T20:34:22.189Z</time>
      </trkpt>
      <trkpt lat="50.53368" lon="3.56131">
        <ele>34.057942</ele>
        <time>2021-05-13T20:34:31.459Z</time>
      </trkpt>
      <trkpt lat="50.53184" lon="3.56524">
        <ele>31.43733</ele>
        <time>2021-05-13T20:35:10.133Z</time>
      </trkpt>
      <trkpt lat="50.53041" lon="3.56843">
        <ele>31.230838</ele>
        <time>2021-05-13T20:35:46.382Z</time>
      </trkpt>
      <trkpt lat="50.5302" lon="3.56909">
        <ele>31.317952</ele>
        <time>2021-05-13T20:35:53.957Z</time>
      </trkpt>
      <trkpt lat="50.5301" lon="3.56988">
        <ele>31.419418</ele>
        <time>2021-05-13T20:36:02.515Z</time>
      </trkpt>
      <trkpt lat="50.53015" lon="3.5705">
        <ele>31.547687</ele>
        <time>2021-05-13T20:36:09.345Z</time>
      </trkpt>
      <trkpt lat="50.53022" lon="3.57139">
        <ele>31.728103</ele>
        <time>2021-05-13T20:36:18.918Z</time>
      </trkpt>
      <trkpt lat="50.53021" lon="3.57195">
        <ele>31.842214</ele>
        <time>2021-05-13T20:36:24.676Z</time>
      </trkpt>
      <trkpt lat="50.53004" lon="3.573">
        <ele>31.888949</ele>
        <time>2021-05-13T20:36:35.324Z</time>
      </trkpt>
      <trkpt lat="50.52915" lon="3.57589">
        <ele>31.111047</ele>
        <time>2021-05-13T20:37:02.381Z</time>
      </trkpt>
      <trkpt lat="50.52906" lon="3.57679">
        <ele>30.849694</ele>
        <time>2021-05-13T20:37:09.824Z</time>
      </trkpt>
      <trkpt lat="50.52888" lon="3.57994">
        <ele>30.886159</ele>
        <time>2021-05-13T20:37:37.797Z</time>
      </trkpt>
      <trkpt lat="50.52861" lon="3.58118">
        <ele>31.853002</ele>
        <time>2021-05-13T20:37:54.723Z</time>
      </trkpt>
      <trkpt lat="50.52818" lon="3.58204">
        <ele>33.613344</ele>
        <time>2021-05-13T20:38:11.446Z</time>
      </trkpt>
      <trkpt lat="50.52816" lon="3.58218">
        <ele>33.84189</ele>
        <time>2021-05-13T20:38:13.732Z</time>
      </trkpt>
      <trkpt lat="50.52824" lon="3.58237">
        <ele>34.201666</ele>
        <time>2021-05-13T20:38:17.928Z</time>
      </trkpt>
      <trkpt lat="50.52848" lon="3.58298">
        <ele>35.357242</ele>
        <time>2021-05-13T20:38:30.293Z</time>
      </trkpt>
      <trkpt lat="50.52883" lon="3.58354">
        <ele>37.024367</ele>
        <time>2021-05-13T20:38:45.985Z</time>
      </trkpt>
      <trkpt lat="50.52887" lon="3.58491">
        <ele>40.085015</ele>
        <time>2021-05-13T20:39:13.238Z</time>
      </trkpt>
      <trkpt lat="50.52889" lon="3.58537">
        <ele>41.130738</ele>
        <time>2021-05-13T20:39:21.455Z</time>
      </trkpt>
      <trkpt lat="50.52902" lon="3.5856">
        <ele>41.829649</ele>
        <time>2021-05-13T20:39:26.397Z</time>
      </trkpt>
      <trkpt lat="50.52906" lon="3.58578">
        <ele>41.974428</ele>
        <time>2021-05-13T20:39:29.516Z</time>
      </trkpt>
      <trkpt lat="50.52905" lon="3.58665">
        <ele>42.179235</ele>
        <time>2021-05-13T20:39:41.466Z</time>
      </trkpt>
      <trkpt lat="50.5293" lon="3.58671">
        <ele>42.27169</ele>
        <time>2021-05-13T20:39:47.093Z</time>
      </trkpt>
      <trkpt lat="50.52935" lon="3.58698">
        <ele>42.338208</ele>
        <time>2021-05-13T20:39:51.121Z</time>
      </trkpt>
      <trkpt lat="50.52944" lon="3.58757">
        <ele>42.482738</ele>
        <time>2021-05-13T20:39:58.192Z</time>
      </trkpt>
      <trkpt lat="50.52976" lon="3.58776">
        <ele>42.600096</ele>
        <time>2021-05-13T20:40:02.171Z</time>
      </trkpt>
      <trkpt lat="50.52979" lon="3.58848">
        <ele>41.650029</ele>
        <time>2021-05-13T20:40:07.110Z</time>
      </trkpt>
      <trkpt lat="50.52979" lon="3.58855">
        <ele>41.560108</ele>
        <time>2021-05-13T20:40:07.538Z</time>
      </trkpt>
      <trkpt lat="50.52985" lon="3.58944">
        <ele>40.378123</ele>
        <time>2021-05-13T20:40:13.693Z</time>
      </trkpt>
      <trkpt lat="50.52988" lon="3.59053">
        <ele>38.957016</ele>
        <time>2021-05-13T20:40:21.235Z</time>
      </trkpt>
      <trkpt lat="50.52988" lon="3.59059">
        <ele>38.882223</ele>
        <time>2021-05-13T20:40:21.646Z</time>
      </trkpt>
      <trkpt lat="50.52977" lon="3.5906">
        <ele>38.781391</ele>
        <time>2021-05-13T20:40:22.873Z</time>
      </trkpt>
      <trkpt lat="50.52972" lon="3.59156">
        <ele>38.213415</ele>
        <time>2021-05-13T20:40:30.014Z</time>
      </trkpt>
      <trkpt lat="50.52971" lon="3.59173">
        <ele>38.112577</ele>
        <time>2021-05-13T20:40:31.403Z</time>
      </trkpt>
      <trkpt lat="50.52974" lon="3.5945">
        <ele>37.301231</ele>
        <time>2021-05-13T20:40:55.636Z</time>
      </trkpt>
      <trkpt lat="50.53009" lon="3.59808">
        <ele>38.168743</ele>
        <time>2021-05-13T20:41:33.585Z</time>
      </trkpt>
      <trkpt lat="50.53016" lon="3.59892">
        <ele>38.503746</ele>
        <time>2021-05-13T20:41:43.845Z</time>
      </trkpt>
      <trkpt lat="50.53021" lon="3.59939">
        <ele>38.767033</ele>
        <time>2021-05-13T20:41:49.849Z</time>
      </trkpt>
      <trkpt lat="50.5306" lon="3.60057">
        <ele>39.506888</ele>
        <time>2021-05-13T20:42:05.870Z</time>
      </trkpt>
      <trkpt lat="50.53064" lon="3.60069">
        <ele>39.579133</ele>
        <time>2021-05-13T20:42:07.674Z</time>
      </trkpt>
      <trkpt lat="50.53056" lon="3.60079">
        <ele>39.669399</ele>
        <time>2021-05-13T20:42:09.657Z</time>
      </trkpt>
      <trkpt lat="50.52997" lon="3.60116">
        <ele>40.035788</ele>
        <time>2021-05-13T20:42:20.201Z</time>
      </trkpt>
      <trkpt lat="50.52988" lon="3.6012">
        <ele>40.037553</ele>
        <time>2021-05-13T20:42:21.770Z</time>
      </trkpt>
      <trkpt lat="50.52973" lon="3.60125">
        <ele>40.040323</ele>
        <time>2021-05-13T20:42:23.703Z</time>
      </trkpt>
      <trkpt lat="50.52952" lon="3.60118">
        <ele>40.044362</ele>
        <time>2021-05-13T20:42:27.326Z</time>
      </trkpt>
      <trkpt lat="50.52948" lon="3.60119">
        <ele>40.044999</ele>
        <time>2021-05-13T20:42:27.734Z</time>
      </trkpt>
      <trkpt lat="50.52944" lon="3.6012">
        <ele>40.045823</ele>
        <time>2021-05-13T20:42:28.323Z</time>
      </trkpt>
      <trkpt lat="50.52935" lon="3.60123">
        <ele>40.047501</ele>
        <time>2021-05-13T20:42:29.585Z</time>
      </trkpt>
      <trkpt lat="50.52932" lon="3.60124">
        <ele>40.048035</ele>
        <time>2021-05-13T20:42:30.132Z</time>
      </trkpt>
      <trkpt lat="50.52929" lon="3.60126">
        <ele>40.048746</ele>
        <time>2021-05-13T20:42:30.874Z</time>
      </trkpt>
      <trkpt lat="50.52925" lon="3.60128">
        <ele>40.049534</ele>
        <time>2021-05-13T20:42:31.565Z</time>
      </trkpt>
      <trkpt lat="50.5292" lon="3.60131">
        <ele>40.050382</ele>
        <time>2021-05-13T20:42:32.332Z</time>
      </trkpt>
      <trkpt lat="50.52912" lon="3.60122">
        <ele>40.052229</ele>
        <time>2021-05-13T20:42:33.705Z</time>
      </trkpt>
      <trkpt lat="50.52892" lon="3.60117">
        <ele>40.055897</ele>
        <time>2021-05-13T20:42:36.462Z</time>
      </trkpt>
      <trkpt lat="50.52875" lon="3.60131">
        <ele>40.059561</ele>
        <time>2021-05-13T20:42:39.226Z</time>
      </trkpt>
      <trkpt lat="50.52868" lon="3.60143">
        <ele>40.061402</ele>
        <time>2021-05-13T20:42:40.566Z</time>
      </trkpt>
      <trkpt lat="50.52864" lon="3.60157">
        <ele>40.063254</ele>
        <time>2021-05-13T20:42:41.995Z</time>
      </trkpt>
      <trkpt lat="50.52863" lon="3.60177">
        <ele>40.066313</ele>
        <time>2021-05-13T20:42:43.688Z</time>
      </trkpt>
      <trkpt lat="50.52865" lon="3.60186">
        <ele>40.069091</ele>
        <time>2021-05-13T20:42:44.491Z</time>
      </trkpt>
      <trkpt lat="50.5287" lon="3.60202">
        <ele>40.074019</ele>
        <time>2021-05-13T20:42:45.990Z</time>
      </trkpt>
      <trkpt lat="50.52877" lon="3.60214">
        <ele>40.078953</ele>
        <time>2021-05-13T20:42:47.487Z</time>
      </trkpt>
      <trkpt lat="50.52887" lon="3.60222">
        <ele>40.083905</ele>
        <time>2021-05-13T20:42:48.994Z</time>
      </trkpt>
      <trkpt lat="50.52898" lon="3.60225">
        <ele>40.088684</ele>
        <time>2021-05-13T20:42:50.456Z</time>
      </trkpt>
      <trkpt lat="50.529" lon="3.60224">
        <ele>40.089594</ele>
        <time>2021-05-13T20:42:50.772Z</time>
      </trkpt>
      <trkpt lat="50.52913" lon="3.60229">
        <ele>40.095684</ele>
        <time>2021-05-13T20:42:52.663Z</time>
      </trkpt>
      <trkpt lat="50.52919" lon="3.60235">
        <ele>40.098918</ele>
        <time>2021-05-13T20:42:53.759Z</time>
      </trkpt>
      <trkpt lat="50.52926" lon="3.60245">
        <ele>40.103041</ele>
        <time>2021-05-13T20:42:55.127Z</time>
      </trkpt>
      <trkpt lat="50.5293" lon="3.60255">
        <ele>40.106491</ele>
        <time>2021-05-13T20:42:56.277Z</time>
      </trkpt>
      <trkpt lat="50.52934" lon="3.60275">
        <ele>40.112364</ele>
        <time>2021-05-13T20:42:58.269Z</time>
      </trkpt>
      <trkpt lat="50.52934" lon="3.60291">
        <ele>40.116996</ele>
        <time>2021-05-13T20:42:59.890Z</time>
      </trkpt>
      <trkpt lat="50.52933" lon="3.60317">
        <ele>40.124629</ele>
        <time>2021-05-13T20:43:02.480Z</time>
      </trkpt>
      <trkpt lat="50.52928" lon="3.60382">
        <ele>40.143275</ele>
        <time>2021-05-13T20:43:09.292Z</time>
      </trkpt>
      <trkpt lat="50.52922" lon="3.60463">
        <ele>40.179657</ele>
        <time>2021-05-13T20:43:18.148Z</time>
      </trkpt>
      <trkpt lat="50.52922" lon="3.60463">
        <ele>40.179657</ele>
        <time>2021-05-13T20:43:18.171Z</time>
      </trkpt>
      <trkpt lat="50.52919" lon="3.60504">
        <ele>40.198543</ele>
        <time>2021-05-13T20:43:22.145Z</time>
      </trkpt>
      <trkpt lat="50.52916" lon="3.60547">
        <ele>40.218973</ele>
        <time>2021-05-13T20:43:26.403Z</time>
      </trkpt>
      <trkpt lat="50.52911" lon="3.6063">
        <ele>40.257919</ele>
        <time>2021-05-13T20:43:34.395Z</time>
      </trkpt>
      <trkpt lat="50.52921" lon="3.60631">
        <ele>40.265406</ele>
        <time>2021-05-13T20:43:45.910Z</time>
      </trkpt>
      <trkpt lat="50.5291" lon="3.60778">
        <ele>39.818382</ele>
        <time>2021-05-13T20:43:58.180Z</time>
      </trkpt>
      <trkpt lat="50.52903" lon="3.60824">
        <ele>39.640439</ele>
        <time>2021-05-13T20:44:01.959Z</time>
      </trkpt>
      <trkpt lat="50.52887" lon="3.60871">
        <ele>39.438859</ele>
        <time>2021-05-13T20:44:06.362Z</time>
      </trkpt>
      <trkpt lat="50.52885" lon="3.60874">
        <ele>39.422585</ele>
        <time>2021-05-13T20:44:06.633Z</time>
      </trkpt>
      <trkpt lat="50.52873" lon="3.60896">
        <ele>39.311403</ele>
        <time>2021-05-13T20:44:09.063Z</time>
      </trkpt>
      <trkpt lat="50.5286" lon="3.60918">
        <ele>39.205304</ele>
        <time>2021-05-13T20:44:11.450Z</time>
      </trkpt>
      <trkpt lat="50.52797" lon="3.60966">
        <ele>39.075086</ele>
        <time>2021-05-13T20:44:20.828Z</time>
      </trkpt>
      <trkpt lat="50.52756" lon="3.60996">
        <ele>38.99164</ele>
        <time>2021-05-13T20:44:27.266Z</time>
      </trkpt>
      <trkpt lat="50.52582" lon="3.61123">
        <ele>39.00934</ele>
        <time>2021-05-13T20:44:57.588Z</time>
      </trkpt>
      <trkpt lat="50.52578" lon="3.61111">
        <ele>39.01765</ele>
        <time>2021-05-13T20:45:06.396Z</time>
      </trkpt>
      <trkpt lat="50.5254" lon="3.61138">
        <ele>39.061498</ele>
        <time>2021-05-13T20:45:12.351Z</time>
      </trkpt>
      <trkpt lat="50.52493" lon="3.61171">
        <ele>38.802135</ele>
        <time>2021-05-13T20:45:19.630Z</time>
      </trkpt>
      <trkpt lat="50.52408" lon="3.61231">
        <ele>38.322548</ele>
        <time>2021-05-13T20:45:31.686Z</time>
      </trkpt>
      <trkpt lat="50.52411" lon="3.61246">
        <ele>38.272096</ele>
        <time>2021-05-13T20:45:42.451Z</time>
      </trkpt>
      <trkpt lat="50.52195" lon="3.61403">
        <ele>36.37616</ele>
        <time>2021-05-13T20:46:12.378Z</time>
      </trkpt>
      <trkpt lat="50.5218" lon="3.61431">
        <ele>36.177802</ele>
        <time>2021-05-13T20:46:15.254Z</time>
      </trkpt>
      <trkpt lat="50.52102" lon="3.61492">
        <ele>35.448012</ele>
        <time>2021-05-13T20:46:26.205Z</time>
      </trkpt>
      <trkpt lat="50.52093" lon="3.615">
        <ele>35.362006</ele>
        <time>2021-05-13T20:46:27.424Z</time>
      </trkpt>
      <trkpt lat="50.52086" lon="3.61473">
        <ele>35.210606</ele>
        <time>2021-05-13T20:46:29.760Z</time>
      </trkpt>
      <trkpt lat="50.52083" lon="3.61464">
        <ele>35.155894</ele>
        <time>2021-05-13T20:46:30.639Z</time>
      </trkpt>
      <trkpt lat="50.52079" lon="3.61448">
        <ele>35.110921</ele>
        <time>2021-05-13T20:46:31.934Z</time>
      </trkpt>
      <trkpt lat="50.52065" lon="3.61373">
        <ele>34.946919</ele>
        <time>2021-05-13T20:46:38.505Z</time>
      </trkpt>
      <trkpt lat="50.52058" lon="3.61305">
        <ele>34.804493</ele>
        <time>2021-05-13T20:46:44.377Z</time>
      </trkpt>
      <trkpt lat="50.52051" lon="3.61065">
        <ele>34.598188</ele>
        <time>2021-05-13T20:47:06.821Z</time>
      </trkpt>
      <trkpt lat="50.52044" lon="3.60824">
        <ele>34.945991</ele>
        <time>2021-05-13T20:47:30.495Z</time>
      </trkpt>
      <trkpt lat="50.52016" lon="3.60814">
        <ele>35.11148</ele>
        <time>2021-05-13T20:47:37.218Z</time>
      </trkpt>
      <trkpt lat="50.51982" lon="3.60806">
        <ele>35.314586</ele>
        <time>2021-05-13T20:47:45.395Z</time>
      </trkpt>
      <trkpt lat="50.51969" lon="3.60802">
        <ele>35.388944</ele>
        <time>2021-05-13T20:47:48.236Z</time>
      </trkpt>
      <trkpt lat="50.51935" lon="3.6079">
        <ele>35.588965</ele>
        <time>2021-05-13T20:47:56.363Z</time>
      </trkpt>
      <trkpt lat="50.51933" lon="3.60789">
        <ele>35.603621</ele>
        <time>2021-05-13T20:47:57.039Z</time>
      </trkpt>
      <trkpt lat="50.51918" lon="3.60784">
        <ele>35.690837</ele>
        <time>2021-05-13T20:48:00.596Z</time>
      </trkpt>
      <trkpt lat="50.5191" lon="3.60781">
        <ele>35.746961</ele>
        <time>2021-05-13T20:48:02.448Z</time>
      </trkpt>
      <trkpt lat="50.51904" lon="3.60777">
        <ele>35.79508</ele>
        <time>2021-05-13T20:48:03.873Z</time>
      </trkpt>
      <trkpt lat="50.51899" lon="3.60775">
        <ele>35.835502</ele>
        <time>2021-05-13T20:48:05.050Z</time>
      </trkpt>
      <trkpt lat="50.51894" lon="3.60767">
        <ele>35.888622</ele>
        <time>2021-05-13T20:48:06.741Z</time>
      </trkpt>
      <trkpt lat="50.51894" lon="3.60746">
        <ele>35.99092</ele>
        <time>2021-05-13T20:48:09.957Z</time>
      </trkpt>
      <trkpt lat="50.51909" lon="3.60644">
        <ele>36.489894</ele>
        <time>2021-05-13T20:48:25.544Z</time>
      </trkpt>
      <trkpt lat="50.51893" lon="3.60641">
        <ele>36.613238</ele>
        <time>2021-05-13T20:48:28.638Z</time>
      </trkpt>
      <trkpt lat="50.51827" lon="3.6063">
        <ele>37.063633</ele>
        <time>2021-05-13T20:48:40.669Z</time>
      </trkpt>
      <trkpt lat="50.51803" lon="3.60624">
        <ele>37.108404</ele>
        <time>2021-05-13T20:48:44.465Z</time>
      </trkpt>
      <trkpt lat="50.51767" lon="3.60606">
        <ele>37.179494</ele>
        <time>2021-05-13T20:48:50.462Z</time>
      </trkpt>
      <trkpt lat="50.51733" lon="3.6058">
        <ele>37.251423</ele>
        <time>2021-05-13T20:48:56.354Z</time>
      </trkpt>
      <trkpt lat="50.51719" lon="3.60569">
        <ele>37.280223</ele>
        <time>2021-05-13T20:48:58.729Z</time>
      </trkpt>
      <trkpt lat="50.51717" lon="3.60566">
        <ele>37.285711</ele>
        <time>2021-05-13T20:48:59.171Z</time>
      </trkpt>
      <trkpt lat="50.51715" lon="3.60564">
        <ele>37.291198</ele>
        <time>2021-05-13T20:48:59.625Z</time>
      </trkpt>
      <trkpt lat="50.51705" lon="3.60552">
        <ele>37.313704</ele>
        <time>2021-05-13T20:49:01.340Z</time>
      </trkpt>
      <trkpt lat="50.5167" lon="3.60516">
        <ele>37.365439</ele>
        <time>2021-05-13T20:49:07.540Z</time>
      </trkpt>
      <trkpt lat="50.51667" lon="3.60514">
        <ele>37.342698</ele>
        <time>2021-05-13T20:49:08.098Z</time>
      </trkpt>
      <trkpt lat="50.51584" lon="3.60389">
        <ele>36.598652</ele>
        <time>2021-05-13T20:49:24.072Z</time>
      </trkpt>
      <trkpt lat="50.51568" lon="3.60358">
        <ele>36.433935</ele>
        <time>2021-05-13T20:49:27.165Z</time>
      </trkpt>
      <trkpt lat="50.51477" lon="3.60465">
        <ele>34.808142</ele>
        <time>2021-05-13T20:49:45.508Z</time>
      </trkpt>
      <trkpt lat="50.51462" lon="3.60487">
        <ele>34.454521</ele>
        <time>2021-05-13T20:49:48.749Z</time>
      </trkpt>
      <trkpt lat="50.51456" lon="3.60494">
        <ele>34.321811</ele>
        <time>2021-05-13T20:49:49.930Z</time>
      </trkpt>
      <trkpt lat="50.51453" lon="3.60498">
        <ele>34.250979</ele>
        <time>2021-05-13T20:49:50.581Z</time>
      </trkpt>
      <trkpt lat="50.51446" lon="3.60508">
        <ele>34.097079</ele>
        <time>2021-05-13T20:49:51.954Z</time>
      </trkpt>
      <trkpt lat="50.51439" lon="3.60514">
        <ele>33.942713</ele>
        <time>2021-05-13T20:49:53.372Z</time>
      </trkpt>
      <trkpt lat="50.51441" lon="3.60531">
        <ele>33.744729</ele>
        <time>2021-05-13T20:49:55.182Z</time>
      </trkpt>
      <trkpt lat="50.51432" lon="3.6054">
        <ele>33.566769</ele>
        <time>2021-05-13T20:49:56.756Z</time>
      </trkpt>
      <trkpt lat="50.5141" lon="3.6057">
        <ele>33.068134</ele>
        <time>2021-05-13T20:50:01.485Z</time>
      </trkpt>
      <trkpt lat="50.51395" lon="3.6058">
        <ele>32.974657</ele>
        <time>2021-05-13T20:50:04.046Z</time>
      </trkpt>
      <trkpt lat="50.5138" lon="3.6058">
        <ele>32.884045</ele>
        <time>2021-05-13T20:50:06.578Z</time>
      </trkpt>
      <trkpt lat="50.51329" lon="3.60557">
        <ele>32.574262</ele>
        <time>2021-05-13T20:50:15.263Z</time>
      </trkpt>
      <trkpt lat="50.51299" lon="3.6056">
        <ele>32.401459</ele>
        <time>2021-05-13T20:50:20.504Z</time>
      </trkpt>
      <trkpt lat="50.5127" lon="3.60581">
        <ele>32.211331</ele>
        <time>2021-05-13T20:50:27.486Z</time>
      </trkpt>
      <trkpt lat="50.51196" lon="3.60655">
        <ele>33.064173</ele>
        <time>2021-05-13T20:50:49.826Z</time>
      </trkpt>
      <trkpt lat="50.51173" lon="3.6068">
        <ele>33.578073</ele>
        <time>2021-05-13T20:50:57.396Z</time>
      </trkpt>
      <trkpt lat="50.51162" lon="3.60698">
        <ele>33.878711</ele>
        <time>2021-05-13T20:51:02.284Z</time>
      </trkpt>
      <trkpt lat="50.51151" lon="3.60723">
        <ele>34.241287</ele>
        <time>2021-05-13T20:51:07.719Z</time>
      </trkpt>
      <trkpt lat="50.51136" lon="3.60759">
        <ele>34.7536</ele>
        <time>2021-05-13T20:51:15.835Z</time>
      </trkpt>
      <trkpt lat="50.51125" lon="3.60776">
        <ele>35.037505</ele>
        <time>2021-05-13T20:51:20.662Z</time>
      </trkpt>
      <trkpt lat="50.51114" lon="3.60805">
        <ele>35.429149</ele>
        <time>2021-05-13T20:51:26.661Z</time>
      </trkpt>
      <trkpt lat="50.51112" lon="3.60819">
        <ele>35.611775</ele>
        <time>2021-05-13T20:51:29.642Z</time>
      </trkpt>
      <trkpt lat="50.51097" lon="3.60851">
        <ele>36.10714</ele>
        <time>2021-05-13T20:51:37.360Z</time>
      </trkpt>
      <trkpt lat="50.51048" lon="3.60937">
        <ele>37.517817</ele>
        <time>2021-05-13T20:51:59.051Z</time>
      </trkpt>
      <trkpt lat="50.51005" lon="3.61001">
        <ele>38.669884</ele>
        <time>2021-05-13T20:52:14.830Z</time>
      </trkpt>
      <trkpt lat="50.5096" lon="3.61071">
        <ele>38.92896</ele>
        <time>2021-05-13T20:52:29.465Z</time>
      </trkpt>
      <trkpt lat="50.50926" lon="3.61124">
        <ele>39.002813</ele>
        <time>2021-05-13T20:52:39.425Z</time>
      </trkpt>
      <trkpt lat="50.50877" lon="3.61213">
        <ele>39.120542</ele>
        <time>2021-05-13T20:52:53.735Z</time>
      </trkpt>
      <trkpt lat="50.50819" lon="3.61294">
        <ele>38.552905</ele>
        <time>2021-05-13T20:53:07.692Z</time>
      </trkpt>
      <trkpt lat="50.50795" lon="3.61337">
        <ele>38.275789</ele>
        <time>2021-05-13T20:53:14.104Z</time>
      </trkpt>
      <trkpt lat="50.5079" lon="3.61341">
        <ele>38.232009</ele>
        <time>2021-05-13T20:53:15.109Z</time>
      </trkpt>
      <trkpt lat="50.50757" lon="3.61394">
        <ele>37.87055</ele>
        <time>2021-05-13T20:53:23.328Z</time>
      </trkpt>
      <trkpt lat="50.50754" lon="3.61402">
        <ele>37.822272</ele>
        <time>2021-05-13T20:53:24.433Z</time>
      </trkpt>
      <trkpt lat="50.50718" lon="3.61448">
        <ele>37.451808</ele>
        <time>2021-05-13T20:53:32.522Z</time>
      </trkpt>
      <trkpt lat="50.50662" lon="3.61503">
        <ele>36.92131</ele>
        <time>2021-05-13T20:53:44.232Z</time>
      </trkpt>
      <trkpt lat="50.50629" lon="3.61542">
        <ele>36.586664</ele>
        <time>2021-05-13T20:53:51.663Z</time>
      </trkpt>
      <trkpt lat="50.50614" lon="3.61569">
        <ele>36.400971</ele>
        <time>2021-05-13T20:53:55.731Z</time>
      </trkpt>
      <trkpt lat="50.50552" lon="3.61716">
        <ele>36.166389</ele>
        <time>2021-05-13T20:54:15.930Z</time>
      </trkpt>
      <trkpt lat="50.50516" lon="3.61817">
        <ele>36.075005</ele>
        <time>2021-05-13T20:54:31.698Z</time>
      </trkpt>
      <trkpt lat="50.50494" lon="3.61878">
        <ele>36.822234</ele>
        <time>2021-05-13T20:54:42.915Z</time>
      </trkpt>
      <trkpt lat="50.50486" lon="3.61898">
        <ele>37.131463</ele>
        <time>2021-05-13T20:54:46.669Z</time>
      </trkpt>
      <trkpt lat="50.50463" lon="3.61962">
        <ele>38.105685</ele>
        <time>2021-05-13T20:54:56.374Z</time>
      </trkpt>
      <trkpt lat="50.5046" lon="3.61972">
        <ele>38.24973</ele>
        <time>2021-05-13T20:54:57.883Z</time>
      </trkpt>
      <trkpt lat="50.50455" lon="3.61978">
        <ele>38.36346</ele>
        <time>2021-05-13T20:54:59.735Z</time>
      </trkpt>
      <trkpt lat="50.50409" lon="3.62062">
        <ele>39.850128</ele>
        <time>2021-05-13T20:55:18.110Z</time>
      </trkpt>
      <trkpt lat="50.50398" lon="3.62078">
        <ele>40.47164</ele>
        <time>2021-05-13T20:55:22.725Z</time>
      </trkpt>
      <trkpt lat="50.50388" lon="3.62091">
        <ele>41.003063</ele>
        <time>2021-05-13T20:55:25.886Z</time>
      </trkpt>
      <trkpt lat="50.50361" lon="3.62137">
        <ele>42.639183</ele>
        <time>2021-05-13T20:55:37.318Z</time>
      </trkpt>
      <trkpt lat="50.50352" lon="3.62138">
        <ele>42.995432</ele>
        <time>2021-05-13T20:55:40.427Z</time>
      </trkpt>
      <trkpt lat="50.50345" lon="3.62133">
        <ele>43.306158</ele>
        <time>2021-05-13T20:55:42.446Z</time>
      </trkpt>
      <trkpt lat="50.50336" lon="3.62123">
        <ele>43.762925</ele>
        <time>2021-05-13T20:55:45.730Z</time>
      </trkpt>
      <trkpt lat="50.50338" lon="3.62046">
        <ele>45.774891</ele>
        <time>2021-05-13T20:56:01.679Z</time>
      </trkpt>
      <trkpt lat="50.50342" lon="3.61915">
        <ele>49.679991</ele>
        <time>2021-05-13T20:56:32.379Z</time>
      </trkpt>
      <trkpt lat="50.50343" lon="3.61892">
        <ele>50.449745</ele>
        <time>2021-05-13T20:56:37.623Z</time>
      </trkpt>
      <trkpt lat="50.50344" lon="3.61875">
        <ele>51.007177</ele>
        <time>2021-05-13T20:56:40.984Z</time>
      </trkpt>
      <trkpt lat="50.50338" lon="3.61871">
        <ele>51.370069</ele>
        <time>2021-05-13T20:56:44.899Z</time>
      </trkpt>
      <trkpt lat="50.50305" lon="3.61774">
        <ele>54.938779</ele>
        <time>2021-05-13T20:57:08.821Z</time>
      </trkpt>
      <trkpt lat="50.50289" lon="3.61745">
        <ele>56.172322</ele>
        <time>2021-05-13T20:57:17.645Z</time>
      </trkpt>
      <trkpt lat="50.50276" lon="3.61735">
        <ele>56.666686</ele>
        <time>2021-05-13T20:57:23.411Z</time>
      </trkpt>
      <trkpt lat="50.50156" lon="3.61709">
        <ele>60.441354</ele>
        <time>2021-05-13T20:57:57.528Z</time>
      </trkpt>
      <trkpt lat="50.50156" lon="3.61709">
        <ele>60.441354</ele>
        <time>2021-05-13T20:57:57.804Z</time>
      </trkpt>
      <trkpt lat="50.50124" lon="3.61694">
        <ele>61.487356</ele>
        <time>2021-05-13T20:58:03.759Z</time>
      </trkpt>
      <trkpt lat="50.50115" lon="3.61685">
        <ele>61.805868</ele>
        <time>2021-05-13T20:58:07.548Z</time>
      </trkpt>
      <trkpt lat="50.50108" lon="3.61675">
        <ele>61.926562</ele>
        <time>2021-05-13T20:58:08.605Z</time>
      </trkpt>
      <trkpt lat="50.50102" lon="3.61663">
        <ele>61.982466</ele>
        <time>2021-05-13T20:58:10.272Z</time>
      </trkpt>
      <trkpt lat="50.5009" lon="3.6163">
        <ele>62.133097</ele>
        <time>2021-05-13T20:58:15.226Z</time>
      </trkpt>
      <trkpt lat="50.50013" lon="3.61397">
        <ele>63.015883</ele>
        <time>2021-05-13T20:58:41.961Z</time>
      </trkpt>
      <trkpt lat="50.49938" lon="3.61209">
        <ele>63.10033</ele>
        <time>2021-05-13T20:59:03.843Z</time>
      </trkpt>
      <trkpt lat="50.49895" lon="3.6109">
        <ele>62.101632</ele>
        <time>2021-05-13T20:59:15.160Z</time>
      </trkpt>
      <trkpt lat="50.49851" lon="3.60985">
        <ele>61.043648</ele>
        <time>2021-05-13T20:59:24.137Z</time>
      </trkpt>
      <trkpt lat="50.49847" lon="3.60975">
        <ele>60.940761</ele>
        <time>2021-05-13T20:59:24.953Z</time>
      </trkpt>
      <trkpt lat="50.49844" lon="3.60968">
        <ele>60.868419</ele>
        <time>2021-05-13T20:59:25.521Z</time>
      </trkpt>
      <trkpt lat="50.49817" lon="3.60911">
        <ele>60.150681</ele>
        <time>2021-05-13T20:59:30.390Z</time>
      </trkpt>
      <trkpt lat="50.49789" lon="3.60868">
        <ele>59.507631</ele>
        <time>2021-05-13T20:59:34.739Z</time>
      </trkpt>
      <trkpt lat="50.49782" lon="3.60857">
        <ele>59.337549</ele>
        <time>2021-05-13T20:59:36.089Z</time>
      </trkpt>
      <trkpt lat="50.4976" lon="3.60825">
        <ele>58.830634</ele>
        <time>2021-05-13T20:59:39.415Z</time>
      </trkpt>
      <trkpt lat="50.49753" lon="3.60807">
        <ele>58.611603</ele>
        <time>2021-05-13T20:59:40.973Z</time>
      </trkpt>
      <trkpt lat="50.49748" lon="3.60798">
        <ele>58.47961</ele>
        <time>2021-05-13T20:59:41.809Z</time>
      </trkpt>
      <trkpt lat="50.4974" lon="3.60783">
        <ele>58.273288</ele>
        <time>2021-05-13T20:59:43.190Z</time>
      </trkpt>
      <trkpt lat="50.49744" lon="3.60773">
        <ele>58.144968</ele>
        <time>2021-05-13T20:59:44.406Z</time>
      </trkpt>
      <trkpt lat="50.49749" lon="3.60741">
        <ele>57.788361</ele>
        <time>2021-05-13T20:59:46.760Z</time>
      </trkpt>
      <trkpt lat="50.49752" lon="3.60724">
        <ele>57.67675</ele>
        <time>2021-05-13T20:59:48.256Z</time>
      </trkpt>
      <trkpt lat="50.49753" lon="3.60712">
        <ele>57.628438</ele>
        <time>2021-05-13T20:59:49.174Z</time>
      </trkpt>
      <trkpt lat="50.49751" lon="3.60692">
        <ele>57.541466</ele>
        <time>2021-05-13T20:59:50.642Z</time>
      </trkpt>
      <trkpt lat="50.49749" lon="3.60685">
        <ele>57.508335</ele>
        <time>2021-05-13T20:59:51.204Z</time>
      </trkpt>
      <trkpt lat="50.49739" lon="3.60692">
        <ele>57.437557</ele>
        <time>2021-05-13T20:59:52.711Z</time>
      </trkpt>
      <trkpt lat="50.49721" lon="3.60701">
        <ele>57.31128</ele>
        <time>2021-05-13T20:59:54.972Z</time>
      </trkpt>
      <trkpt lat="50.49715" lon="3.60687">
        <ele>57.240094</ele>
        <time>2021-05-13T20:59:56.245Z</time>
      </trkpt>
      <trkpt lat="50.49627" lon="3.60462">
        <ele>56.158126</ele>
        <time>2021-05-13T21:00:19.735Z</time>
      </trkpt>
      <trkpt lat="50.49545" lon="3.60244">
        <ele>55.101512</ele>
        <time>2021-05-13T21:00:40.082Z</time>
      </trkpt>
      <trkpt lat="50.49495" lon="3.60115">
        <ele>54.341191</ele>
        <time>2021-05-13T21:00:52.042Z</time>
      </trkpt>
      <trkpt lat="50.49452" lon="3.60008">
        <ele>53.999246</ele>
        <time>2021-05-13T21:01:02.505Z</time>
      </trkpt>
      <trkpt lat="50.49349" lon="3.59745">
        <ele>54.030934</ele>
        <time>2021-05-13T21:01:33.046Z</time>
      </trkpt>
      <trkpt lat="50.49189" lon="3.59333">
        <ele>54.518918</ele>
        <time>2021-05-13T21:02:21.325Z</time>
      </trkpt>
      <trkpt lat="50.49168" lon="3.59277">
        <ele>54.380886</ele>
        <time>2021-05-13T21:02:26.739Z</time>
      </trkpt>
      <trkpt lat="50.49208" lon="3.59255">
        <ele>54.236934</ele>
        <time>2021-05-13T21:02:32.279Z</time>
      </trkpt>
      <trkpt lat="50.492" lon="3.59197">
        <ele>54.110388</ele>
        <time>2021-05-13T21:02:37.137Z</time>
      </trkpt>
      <trkpt lat="50.49164" lon="3.58706">
        <ele>53.507337</ele>
        <time>2021-05-13T21:03:22.111Z</time>
      </trkpt>
      <trkpt lat="50.49158" lon="3.58663">
        <ele>53.46496</ele>
        <time>2021-05-13T21:03:26.426Z</time>
      </trkpt>
      <trkpt lat="50.49134" lon="3.58608">
        <ele>53.401843</ele>
        <time>2021-05-13T21:03:32.614Z</time>
      </trkpt>
      <trkpt lat="50.49117" lon="3.58586">
        <ele>53.369024</ele>
        <time>2021-05-13T21:03:35.987Z</time>
      </trkpt>
      <trkpt lat="50.4907" lon="3.58551">
        <ele>52.75317</ele>
        <time>2021-05-13T21:03:42.911Z</time>
      </trkpt>
      <trkpt lat="50.49052" lon="3.5854">
        <ele>52.496048</ele>
        <time>2021-05-13T21:03:45.369Z</time>
      </trkpt>
      <trkpt lat="50.49045" lon="3.58529">
        <ele>52.360927</ele>
        <time>2021-05-13T21:03:46.551Z</time>
      </trkpt>
      <trkpt lat="50.48989" lon="3.58418">
        <ele>51.148256</ele>
        <time>2021-05-13T21:03:56.707Z</time>
      </trkpt>
      <trkpt lat="50.48981" lon="3.58406">
        <ele>50.998462</ele>
        <time>2021-05-13T21:03:57.838Z</time>
      </trkpt>
      <trkpt lat="50.48918" lon="3.5834">
        <ele>49.364713</ele>
        <time>2021-05-13T21:04:05.912Z</time>
      </trkpt>
      <trkpt lat="50.48906" lon="3.58329">
        <ele>49.044161</ele>
        <time>2021-05-13T21:04:07.458Z</time>
      </trkpt>
      <trkpt lat="50.48897" lon="3.5832">
        <ele>48.821725</ele>
        <time>2021-05-13T21:04:08.545Z</time>
      </trkpt>
      <trkpt lat="50.48894" lon="3.58299">
        <ele>48.512436</ele>
        <time>2021-05-13T21:04:10.674Z</time>
      </trkpt>
      <trkpt lat="50.48863" lon="3.5811">
        <ele>46.03266</ele>
        <time>2021-05-13T21:04:30.266Z</time>
      </trkpt>
      <trkpt lat="50.48859" lon="3.58074">
        <ele>45.63353</ele>
        <time>2021-05-13T21:04:34.075Z</time>
      </trkpt>
      <trkpt lat="50.48851" lon="3.58019">
        <ele>45.019102</ele>
        <time>2021-05-13T21:04:40.135Z</time>
      </trkpt>
      <trkpt lat="50.48847" lon="3.5798">
        <ele>44.587069</ele>
        <time>2021-05-13T21:04:44.322Z</time>
      </trkpt>
      <trkpt lat="50.48844" lon="3.57939">
        <ele>44.142244</ele>
        <time>2021-05-13T21:04:48.471Z</time>
      </trkpt>
      <trkpt lat="50.48839" lon="3.57877">
        <ele>43.464115</ele>
        <time>2021-05-13T21:04:54.919Z</time>
      </trkpt>
      <trkpt lat="50.48837" lon="3.57849">
        <ele>43.161263</ele>
        <time>2021-05-13T21:04:57.784Z</time>
      </trkpt>
      <trkpt lat="50.48831" lon="3.57765">
        <ele>42.249671</ele>
        <time>2021-05-13T21:05:06.402Z</time>
      </trkpt>
      <trkpt lat="50.48829" lon="3.57713">
        <ele>41.69497</ele>
        <time>2021-05-13T21:05:11.570Z</time>
      </trkpt>
      <trkpt lat="50.48804" lon="3.57213">
        <ele>37.394824</ele>
        <time>2021-05-13T21:06:05.187Z</time>
      </trkpt>
      <trkpt lat="50.48792" lon="3.57139">
        <ele>36.842265</ele>
        <time>2021-05-13T21:06:13.702Z</time>
      </trkpt>
      <trkpt lat="50.48771" lon="3.57037">
        <ele>36.236008</ele>
        <time>2021-05-13T21:06:25.692Z</time>
      </trkpt>
      <trkpt lat="50.48753" lon="3.56942">
        <ele>35.931132</ele>
        <time>2021-05-13T21:06:36.977Z</time>
      </trkpt>
      <trkpt lat="50.48748" lon="3.5692">
        <ele>35.858431</ele>
        <time>2021-05-13T21:06:39.648Z</time>
      </trkpt>
      <trkpt lat="50.48707" lon="3.56716">
        <ele>36.018315</ele>
        <time>2021-05-13T21:07:06.952Z</time>
      </trkpt>
      <trkpt lat="50.48686" lon="3.56608">
        <ele>36.663154</ele>
        <time>2021-05-13T21:07:24.782Z</time>
      </trkpt>
      <trkpt lat="50.48656" lon="3.56449">
        <ele>37.902511</ele>
        <time>2021-05-13T21:07:53.142Z</time>
      </trkpt>
      <trkpt lat="50.48622" lon="3.5628">
        <ele>39.494581</ele>
        <time>2021-05-13T21:08:23.003Z</time>
      </trkpt>
      <trkpt lat="50.48605" lon="3.56228">
        <ele>39.558343</ele>
        <time>2021-05-13T21:08:31.535Z</time>
      </trkpt>
      <trkpt lat="50.48597" lon="3.56214">
        <ele>39.523871</ele>
        <time>2021-05-13T21:08:34.125Z</time>
      </trkpt>
      <trkpt lat="50.48588" lon="3.56219">
        <ele>39.497304</ele>
        <time>2021-05-13T21:08:35.942Z</time>
      </trkpt>
      <trkpt lat="50.48558" lon="3.56228">
        <ele>39.406183</ele>
        <time>2021-05-13T21:08:42.207Z</time>
      </trkpt>
      <trkpt lat="50.48505" lon="3.56203">
        <ele>39.241469</ele>
        <time>2021-05-13T21:08:52.585Z</time>
      </trkpt>
      <trkpt lat="50.4833" lon="3.56083">
        <ele>37.035357</ele>
        <time>2021-05-13T21:09:24.239Z</time>
      </trkpt>
      <trkpt lat="50.48301" lon="3.56067">
        <ele>36.600938</ele>
        <time>2021-05-13T21:09:29.204Z</time>
      </trkpt>
      <trkpt lat="50.483" lon="3.56072">
        <ele>36.554418</ele>
        <time>2021-05-13T21:09:29.584Z</time>
      </trkpt>
      <trkpt lat="50.48261" lon="3.56047">
        <ele>35.951295</ele>
        <time>2021-05-13T21:09:36.425Z</time>
      </trkpt>
      <trkpt lat="50.48233" lon="3.56023">
        <ele>35.484675</ele>
        <time>2021-05-13T21:09:41.746Z</time>
      </trkpt>
      <trkpt lat="50.48205" lon="3.55988">
        <ele>34.963452</ele>
        <time>2021-05-13T21:09:47.691Z</time>
      </trkpt>
      <trkpt lat="50.4816" lon="3.5592">
        <ele>34.063786</ele>
        <time>2021-05-13T21:09:58.051Z</time>
      </trkpt>
      <trkpt lat="50.4811" lon="3.55832">
        <ele>33.083871</ele>
        <time>2021-05-13T21:10:10.715Z</time>
      </trkpt>
      <trkpt lat="50.48076" lon="3.55751">
        <ele>32.280828</ele>
        <time>2021-05-13T21:10:21.225Z</time>
      </trkpt>
      <trkpt lat="50.48037" lon="3.5568">
        <ele>31.509522</ele>
        <time>2021-05-13T21:10:31.268Z</time>
      </trkpt>
      <trkpt lat="50.47953" lon="3.55571">
        <ele>30.073138</ele>
        <time>2021-05-13T21:10:49.472Z</time>
      </trkpt>
      <trkpt lat="50.47927" lon="3.55549">
        <ele>29.675802</ele>
        <time>2021-05-13T21:10:54.487Z</time>
      </trkpt>
      <trkpt lat="50.47782" lon="3.55534">
        <ele>27.809164</ele>
        <time>2021-05-13T21:11:18.583Z</time>
      </trkpt>
      <trkpt lat="50.47687" lon="3.55447">
        <ele>26.670227</ele>
        <time>2021-05-13T21:11:37.414Z</time>
      </trkpt>
      <trkpt lat="50.47596" lon="3.55346">
        <ele>25.957882</ele>
        <time>2021-05-13T21:11:57.714Z</time>
      </trkpt>
      <trkpt lat="50.47506" lon="3.55267">
        <ele>25.525029</ele>
        <time>2021-05-13T21:12:17.907Z</time>
      </trkpt>
      <trkpt lat="50.47457" lon="3.55245">
        <ele>25.349213</ele>
        <time>2021-05-13T21:12:27.722Z</time>
      </trkpt>
      <trkpt lat="50.47381" lon="3.55237">
        <ele>25.052274</ele>
        <time>2021-05-13T21:12:42.012Z</time>
      </trkpt>
      <trkpt lat="50.47373" lon="3.55228">
        <ele>25.002147</ele>
        <time>2021-05-13T21:12:43.908Z</time>
      </trkpt>
      <trkpt lat="50.47353" lon="3.55212">
        <ele>24.889679</ele>
        <time>2021-05-13T21:12:47.938Z</time>
      </trkpt>
      <trkpt lat="50.47279" lon="3.55174">
        <ele>24.501269</ele>
        <time>2021-05-13T21:13:02.151Z</time>
      </trkpt>
      <trkpt lat="50.47234" lon="3.5516">
        <ele>24.273088</ele>
        <time>2021-05-13T21:13:10.538Z</time>
      </trkpt>
      <trkpt lat="50.47224" lon="3.55157">
        <ele>24.298531</ele>
        <time>2021-05-13T21:13:12.441Z</time>
      </trkpt>
      <trkpt lat="50.47179" lon="3.55139">
        <ele>24.425571</ele>
        <time>2021-05-13T21:13:21.667Z</time>
      </trkpt>
      <trkpt lat="50.47118" lon="3.55099">
        <ele>24.608444</ele>
        <time>2021-05-13T21:13:35.899Z</time>
      </trkpt>
      <trkpt lat="50.47108" lon="3.55078">
        <ele>24.653034</ele>
        <time>2021-05-13T21:13:39.511Z</time>
      </trkpt>
      <trkpt lat="50.47081" lon="3.55013">
        <ele>24.853817</ele>
        <time>2021-05-13T21:13:51.234Z</time>
      </trkpt>
      <trkpt lat="50.4707" lon="3.54976">
        <ele>25.102179</ele>
        <time>2021-05-13T21:13:57.331Z</time>
      </trkpt>
      <trkpt lat="50.47053" lon="3.54872">
        <ele>25.765997</ele>
        <time>2021-05-13T21:14:14.093Z</time>
      </trkpt>
      <trkpt lat="50.47051" lon="3.54825">
        <ele>26.05721</ele>
        <time>2021-05-13T21:14:21.634Z</time>
      </trkpt>
      <trkpt lat="50.47061" lon="3.54705">
        <ele>26.700833</ele>
        <time>2021-05-13T21:14:40.153Z</time>
      </trkpt>
      <trkpt lat="50.4706" lon="3.54683">
        <ele>26.789749</ele>
        <time>2021-05-13T21:14:43.503Z</time>
      </trkpt>
      <trkpt lat="50.47062" lon="3.54674">
        <ele>26.82778</ele>
        <time>2021-05-13T21:14:44.912Z</time>
      </trkpt>
      <trkpt lat="50.47063" lon="3.54663">
        <ele>26.873854</ele>
        <time>2021-05-13T21:14:46.599Z</time>
      </trkpt>
      <trkpt lat="50.4708" lon="3.54625">
        <ele>27.065609</ele>
        <time>2021-05-13T21:14:53.579Z</time>
      </trkpt>
      <trkpt lat="50.47128" lon="3.54535">
        <ele>27.54622</ele>
        <time>2021-05-13T21:15:10.265Z</time>
      </trkpt>
      <trkpt lat="50.47164" lon="3.54473">
        <ele>27.635065</ele>
        <time>2021-05-13T21:15:21.756Z</time>
      </trkpt>
      <trkpt lat="50.47173" lon="3.54456">
        <ele>27.624163</ele>
        <time>2021-05-13T21:15:24.560Z</time>
      </trkpt>
      <trkpt lat="50.47236" lon="3.54381">
        <ele>27.562687</ele>
        <time>2021-05-13T21:15:40.238Z</time>
      </trkpt>
      <trkpt lat="50.47362" lon="3.54174">
        <ele>27.131677</ele>
        <time>2021-05-13T21:16:15.063Z</time>
      </trkpt>
      <trkpt lat="50.47424" lon="3.5409">
        <ele>26.883306</ele>
        <time>2021-05-13T21:16:30.741Z</time>
      </trkpt>
      <trkpt lat="50.47459" lon="3.54041">
        <ele>26.734022</ele>
        <time>2021-05-13T21:16:39.774Z</time>
      </trkpt>
      <trkpt lat="50.47451" lon="3.54009">
        <ele>26.663298</ele>
        <time>2021-05-13T21:16:42.804Z</time>
      </trkpt>
      <trkpt lat="50.47453" lon="3.53984">
        <ele>26.61349</ele>
        <time>2021-05-13T21:16:45.022Z</time>
      </trkpt>
      <trkpt lat="50.47477" lon="3.53881">
        <ele>26.399045</ele>
        <time>2021-05-13T21:16:54.678Z</time>
      </trkpt>
      <trkpt lat="50.47479" lon="3.53836">
        <ele>26.333248</ele>
        <time>2021-05-13T21:16:58.634Z</time>
      </trkpt>
      <trkpt lat="50.47489" lon="3.53806">
        <ele>26.28432</ele>
        <time>2021-05-13T21:17:01.577Z</time>
      </trkpt>
      <trkpt lat="50.47546" lon="3.53646">
        <ele>26.019801</ele>
        <time>2021-05-13T21:17:17.884Z</time>
      </trkpt>
      <trkpt lat="50.47571" lon="3.53501">
        <ele>25.85544</ele>
        <time>2021-05-13T21:17:31.816Z</time>
      </trkpt>
      <trkpt lat="50.47553" lon="3.53287">
        <ele>25.512962</ele>
        <time>2021-05-13T21:17:51.373Z</time>
      </trkpt>
      <trkpt lat="50.47553" lon="3.53218">
        <ele>25.337858</ele>
        <time>2021-05-13T21:17:57.416Z</time>
      </trkpt>
      <trkpt lat="50.47551" lon="3.53211">
        <ele>25.319261</ele>
        <time>2021-05-13T21:17:58.309Z</time>
      </trkpt>
      <trkpt lat="50.4756" lon="3.53122">
        <ele>25.089811</ele>
        <time>2021-05-13T21:18:09.162Z</time>
      </trkpt>
      <trkpt lat="50.47537" lon="3.52652">
        <ele>22.810227</ele>
        <time>2021-05-13T21:19:02.969Z</time>
      </trkpt>
      <trkpt lat="50.47537" lon="3.52652">
        <ele>22.810227</ele>
        <time>2021-05-13T21:19:02.983Z</time>
      </trkpt>
      <trkpt lat="50.47531" lon="3.52629">
        <ele>22.663476</ele>
        <time>2021-05-13T21:19:05.864Z</time>
      </trkpt>
      <trkpt lat="50.47536" lon="3.526">
        <ele>22.482462</ele>
        <time>2021-05-13T21:19:09.477Z</time>
      </trkpt>
      <trkpt lat="50.47531" lon="3.52473">
        <ele>21.751515</ele>
        <time>2021-05-13T21:19:23.373Z</time>
      </trkpt>
      <trkpt lat="50.47494" lon="3.52402">
        <ele>21.262158</ele>
        <time>2021-05-13T21:19:33.141Z</time>
      </trkpt>
      <trkpt lat="50.47487" lon="3.52388">
        <ele>21.159929</ele>
        <time>2021-05-13T21:19:35.387Z</time>
      </trkpt>
      <trkpt lat="50.4754" lon="3.52313">
        <ele>20.554441</ele>
        <time>2021-05-13T21:19:44.688Z</time>
      </trkpt>
      <trkpt lat="50.47543" lon="3.52294">
        <ele>20.470281</ele>
        <time>2021-05-13T21:19:46.279Z</time>
      </trkpt>
      <trkpt lat="50.47556" lon="3.52303">
        <ele>20.417597</ele>
        <time>2021-05-13T21:19:48.202Z</time>
      </trkpt>
      <trkpt lat="50.476" lon="3.52316">
        <ele>20.253678</ele>
        <time>2021-05-13T21:19:54.231Z</time>
      </trkpt>
      <trkpt lat="50.47614" lon="3.52314">
        <ele>20.200688</ele>
        <time>2021-05-13T21:19:56.073Z</time>
      </trkpt>
      <trkpt lat="50.47654" lon="3.52277">
        <ele>20.028074</ele>
        <time>2021-05-13T21:20:02.393Z</time>
      </trkpt>
      <trkpt lat="50.47693" lon="3.52217">
        <ele>19.824494</ele>
        <time>2021-05-13T21:20:10.009Z</time>
      </trkpt>
      <trkpt lat="50.47718" lon="3.52168">
        <ele>19.728238</ele>
        <time>2021-05-13T21:20:15.757Z</time>
      </trkpt>
      <trkpt lat="50.4773" lon="3.52141">
        <ele>19.677812</ele>
        <time>2021-05-13T21:20:18.807Z</time>
      </trkpt>
      <trkpt lat="50.47755" lon="3.52073">
        <ele>19.558721</ele>
        <time>2021-05-13T21:20:25.922Z</time>
      </trkpt>
      <trkpt lat="50.47758" lon="3.52039">
        <ele>19.506964</ele>
        <time>2021-05-13T21:20:29.009Z</time>
      </trkpt>
      <trkpt lat="50.47759" lon="3.52018">
        <ele>19.4738</ele>
        <time>2021-05-13T21:20:30.947Z</time>
      </trkpt>
      <trkpt lat="50.47782" lon="3.51698">
        <ele>18.603425</ele>
        <time>2021-05-13T21:20:58.270Z</time>
      </trkpt>
      <trkpt lat="50.47783" lon="3.51663">
        <ele>18.495923</ele>
        <time>2021-05-13T21:21:01.289Z</time>
      </trkpt>
      <trkpt lat="50.47784" lon="3.5165">
        <ele>18.456182</ele>
        <time>2021-05-13T21:21:02.393Z</time>
      </trkpt>
      <trkpt lat="50.47784" lon="3.51643">
        <ele>18.434523</ele>
        <time>2021-05-13T21:21:02.986Z</time>
      </trkpt>
      <trkpt lat="50.47785" lon="3.51628">
        <ele>18.387561</ele>
        <time>2021-05-13T21:21:04.274Z</time>
      </trkpt>
      <trkpt lat="50.47824" lon="3.51488">
        <ele>17.914073</ele>
        <time>2021-05-13T21:21:17.235Z</time>
      </trkpt>
      <trkpt lat="50.47858" lon="3.51324">
        <ele>17.343064</ele>
        <time>2021-05-13T21:21:31.801Z</time>
      </trkpt>
      <trkpt lat="50.47952" lon="3.51044">
        <ele>16.207015</ele>
        <time>2021-05-13T21:21:58.122Z</time>
      </trkpt>
      <trkpt lat="50.47986" lon="3.50967">
        <ele>15.856427</ele>
        <time>2021-05-13T21:22:05.980Z</time>
      </trkpt>
      <trkpt lat="50.48047" lon="3.50871">
        <ele>15.387613</ele>
        <time>2021-05-13T21:22:17.382Z</time>
      </trkpt>
      <trkpt lat="50.48087" lon="3.50718">
        <ele>14.846691</ele>
        <time>2021-05-13T21:22:31.309Z</time>
      </trkpt>
      <trkpt lat="50.48134" lon="3.50632">
        <ele>14.636544</ele>
        <time>2021-05-13T21:22:41.007Z</time>
      </trkpt>
      <trkpt lat="50.48156" lon="3.50601">
        <ele>14.584593</ele>
        <time>2021-05-13T21:22:45.072Z</time>
      </trkpt>
      <trkpt lat="50.48195" lon="3.50547">
        <ele>14.493775</ele>
        <time>2021-05-13T21:22:52.381Z</time>
      </trkpt>
      <trkpt lat="50.48334" lon="3.50262">
        <ele>14.769125</ele>
        <time>2021-05-13T21:23:27.750Z</time>
      </trkpt>
      <trkpt lat="50.48334" lon="3.50155">
        <ele>15.141039</ele>
        <time>2021-05-13T21:23:39.348Z</time>
      </trkpt>
      <trkpt lat="50.48314" lon="3.50065">
        <ele>15.483895</ele>
        <time>2021-05-13T21:23:50.196Z</time>
      </trkpt>
      <trkpt lat="50.48317" lon="3.50036">
        <ele>15.588938</ele>
        <time>2021-05-13T21:23:53.575Z</time>
      </trkpt>
      <trkpt lat="50.48417" lon="3.49873">
        <ele>16.066993</ele>
        <time>2021-05-13T21:24:17.815Z</time>
      </trkpt>
      <trkpt lat="50.48456" lon="3.4981">
        <ele>16.210239</ele>
        <time>2021-05-13T21:24:25.919Z</time>
      </trkpt>
      <trkpt lat="50.48464" lon="3.49803">
        <ele>16.234373</ele>
        <time>2021-05-13T21:24:27.254Z</time>
      </trkpt>
      <trkpt lat="50.4847" lon="3.498">
        <ele>16.247747</ele>
        <time>2021-05-13T21:24:28.211Z</time>
      </trkpt>
      <trkpt lat="50.48475" lon="3.49799">
        <ele>16.232814</ele>
        <time>2021-05-13T21:24:28.978Z</time>
      </trkpt>
      <trkpt lat="50.48497" lon="3.49796">
        <ele>16.172402</ele>
        <time>2021-05-13T21:24:31.922Z</time>
      </trkpt>
      <trkpt lat="50.4851" lon="3.49792">
        <ele>16.134523</ele>
        <time>2021-05-13T21:24:33.860Z</time>
      </trkpt>
      <trkpt lat="50.48526" lon="3.49777">
        <ele>16.083365</ele>
        <time>2021-05-13T21:24:36.332Z</time>
      </trkpt>
      <trkpt lat="50.4857" lon="3.49704">
        <ele>15.904972</ele>
        <time>2021-05-13T21:24:44.976Z</time>
      </trkpt>
      <trkpt lat="50.48604" lon="3.49668">
        <ele>15.790023</ele>
        <time>2021-05-13T21:24:50.459Z</time>
      </trkpt>
      <trkpt lat="50.48628" lon="3.49654">
        <ele>15.747934</ele>
        <time>2021-05-13T21:24:54.161Z</time>
      </trkpt>
      <trkpt lat="50.48684" lon="3.49642">
        <ele>15.756584</ele>
        <time>2021-05-13T21:25:02.780Z</time>
      </trkpt>
      <trkpt lat="50.48731" lon="3.4961">
        <ele>15.764222</ele>
        <time>2021-05-13T21:25:10.398Z</time>
      </trkpt>
      <trkpt lat="50.48736" lon="3.49611">
        <ele>15.76509</ele>
        <time>2021-05-13T21:25:11.271Z</time>
      </trkpt>
      <trkpt lat="50.48765" lon="3.49649">
        <ele>15.770716</ele>
        <time>2021-05-13T21:25:16.789Z</time>
      </trkpt>
      <trkpt lat="50.48847" lon="3.49688">
        <ele>15.912152</ele>
        <time>2021-05-13T21:25:30.095Z</time>
      </trkpt>
      <trkpt lat="50.48861" lon="3.49706">
        <ele>15.949402</ele>
        <time>2021-05-13T21:25:32.993Z</time>
      </trkpt>
      <trkpt lat="50.4887" lon="3.49728">
        <ele>15.985317</ele>
        <time>2021-05-13T21:25:35.610Z</time>
      </trkpt>
      <trkpt lat="50.48879" lon="3.49766">
        <ele>16.037881</ele>
        <time>2021-05-13T21:25:39.626Z</time>
      </trkpt>
      <trkpt lat="50.48906" lon="3.49893">
        <ele>16.249994</ele>
        <time>2021-05-13T21:25:53.204Z</time>
      </trkpt>
      <trkpt lat="50.48908" lon="3.49897">
        <ele>16.261742</ele>
        <time>2021-05-13T21:25:53.762Z</time>
      </trkpt>
      <trkpt lat="50.48911" lon="3.49902">
        <ele>16.275822</ele>
        <time>2021-05-13T21:25:54.615Z</time>
      </trkpt>
      <trkpt lat="50.48914" lon="3.49904">
        <ele>16.287329</ele>
        <time>2021-05-13T21:25:55.125Z</time>
      </trkpt>
      <trkpt lat="50.48927" lon="3.49907">
        <ele>16.328069</ele>
        <time>2021-05-13T21:25:57.259Z</time>
      </trkpt>
      <trkpt lat="50.48934" lon="3.49909">
        <ele>16.351775</ele>
        <time>2021-05-13T21:25:58.455Z</time>
      </trkpt>
      <trkpt lat="50.4895" lon="3.49913">
        <ele>16.403068</ele>
        <time>2021-05-13T21:26:01.107Z</time>
      </trkpt>
      <trkpt lat="50.48953" lon="3.49914">
        <ele>16.41234</ele>
        <time>2021-05-13T21:26:01.695Z</time>
      </trkpt>
      <trkpt lat="50.49" lon="3.49921">
        <ele>16.561184</ele>
        <time>2021-05-13T21:26:09.470Z</time>
      </trkpt>
      <trkpt lat="50.49082" lon="3.49844">
        <ele>16.598163</ele>
        <time>2021-05-13T21:26:24.120Z</time>
      </trkpt>
      <trkpt lat="50.49094" lon="3.49838">
        <ele>16.564795</ele>
        <time>2021-05-13T21:26:25.910Z</time>
      </trkpt>
      <trkpt lat="50.49191" lon="3.49853">
        <ele>16.312602</ele>
        <time>2021-05-13T21:26:38.969Z</time>
      </trkpt>
      <trkpt lat="50.49196" lon="3.49853">
        <ele>16.29805</ele>
        <time>2021-05-13T21:26:39.703Z</time>
      </trkpt>
      <trkpt lat="50.49201" lon="3.49848">
        <ele>16.283795</ele>
        <time>2021-05-13T21:26:40.468Z</time>
      </trkpt>
      <trkpt lat="50.49208" lon="3.49841">
        <ele>16.261094</ele>
        <time>2021-05-13T21:26:41.580Z</time>
      </trkpt>
      <trkpt lat="50.49282" lon="3.49773">
        <ele>16.13652</ele>
        <time>2021-05-13T21:26:53.503Z</time>
      </trkpt>
      <trkpt lat="50.49284" lon="3.49771">
        <ele>16.13296</ele>
        <time>2021-05-13T21:26:53.782Z</time>
      </trkpt>
      <trkpt lat="50.49288" lon="3.49767">
        <ele>16.126006</ele>
        <time>2021-05-13T21:26:54.463Z</time>
      </trkpt>
      <trkpt lat="50.49308" lon="3.49756">
        <ele>16.096222</ele>
        <time>2021-05-13T21:26:57.481Z</time>
      </trkpt>
      <trkpt lat="50.49327" lon="3.49756">
        <ele>16.070308</ele>
        <time>2021-05-13T21:27:00.019Z</time>
      </trkpt>
      <trkpt lat="50.49356" lon="3.49781">
        <ele>16.024021</ele>
        <time>2021-05-13T21:27:04.862Z</time>
      </trkpt>
      <trkpt lat="50.4937" lon="3.49783">
        <ele>16.003763</ele>
        <time>2021-05-13T21:27:07.248Z</time>
      </trkpt>
      <trkpt lat="50.49442" lon="3.49791">
        <ele>16.335489</ele>
        <time>2021-05-13T21:27:19.296Z</time>
      </trkpt>
      <trkpt lat="50.49496" lon="3.49786">
        <ele>16.605332</ele>
        <time>2021-05-13T21:27:28.754Z</time>
      </trkpt>
      <trkpt lat="50.49546" lon="3.49865">
        <ele>16.91389</ele>
        <time>2021-05-13T21:27:40.849Z</time>
      </trkpt>
      <trkpt lat="50.49552" lon="3.49866">
        <ele>16.923714</ele>
        <time>2021-05-13T21:27:41.850Z</time>
      </trkpt>
      <trkpt lat="50.49561" lon="3.49862">
        <ele>16.942262</ele>
        <time>2021-05-13T21:27:43.545Z</time>
      </trkpt>
      <trkpt lat="50.49674" lon="3.49784">
        <ele>17.17178</ele>
        <time>2021-05-13T21:28:03.062Z</time>
      </trkpt>
      <trkpt lat="50.49786" lon="3.49689">
        <ele>16.779895</ele>
        <time>2021-05-13T21:28:20.309Z</time>
      </trkpt>
      <trkpt lat="50.4984" lon="3.49655">
        <ele>16.519543</ele>
        <time>2021-05-13T21:28:27.921Z</time>
      </trkpt>
      <trkpt lat="50.49868" lon="3.49638">
        <ele>16.395343</ele>
        <time>2021-05-13T21:28:31.825Z</time>
      </trkpt>
      <trkpt lat="50.49872" lon="3.49635">
        <ele>16.382984</ele>
        <time>2021-05-13T21:28:32.330Z</time>
      </trkpt>
      <trkpt lat="50.49871" lon="3.49622">
        <ele>16.354399</ele>
        <time>2021-05-13T21:28:33.838Z</time>
      </trkpt>
      <trkpt lat="50.49862" lon="3.49562">
        <ele>16.224631</ele>
        <time>2021-05-13T21:28:41.052Z</time>
      </trkpt>
      <trkpt lat="50.49838" lon="3.49458">
        <ele>15.988914</ele>
        <time>2021-05-13T21:28:54.360Z</time>
      </trkpt>
      <trkpt lat="50.49789" lon="3.49306">
        <ele>15.874436</ele>
        <time>2021-05-13T21:29:16.478Z</time>
      </trkpt>
      <trkpt lat="50.49759" lon="3.49189">
        <ele>15.945914</ele>
        <time>2021-05-13T21:29:33.217Z</time>
      </trkpt>
      <trkpt lat="50.49759" lon="3.49162">
        <ele>15.961357</ele>
        <time>2021-05-13T21:29:36.993Z</time>
      </trkpt>
      <trkpt lat="50.49779" lon="3.49135">
        <ele>15.988807</ele>
        <time>2021-05-13T21:29:42.449Z</time>
      </trkpt>
      <trkpt lat="50.49832" lon="3.49014">
        <ele>16.194937</ele>
        <time>2021-05-13T21:30:01.780Z</time>
      </trkpt>
      <trkpt lat="50.49846" lon="3.48993">
        <ele>16.239952</ele>
        <time>2021-05-13T21:30:06.078Z</time>
      </trkpt>
      <trkpt lat="50.49921" lon="3.48943">
        <ele>16.439562</ele>
        <time>2021-05-13T21:30:23.162Z</time>
      </trkpt>
      <trkpt lat="50.49924" lon="3.48927">
        <ele>16.477815</ele>
        <time>2021-05-13T21:30:25.594Z</time>
      </trkpt>
      <trkpt lat="50.49923" lon="3.48903">
        <ele>16.530484</ele>
        <time>2021-05-13T21:30:28.939Z</time>
      </trkpt>
      <trkpt lat="50.49893" lon="3.48803">
        <ele>16.771393</ele>
        <time>2021-05-13T21:30:44.691Z</time>
      </trkpt>
      <trkpt lat="50.49899" lon="3.48616">
        <ele>16.935531</ele>
        <time>2021-05-13T21:31:09.856Z</time>
      </trkpt>
      <trkpt lat="50.49899" lon="3.48579">
        <ele>16.906922</ele>
        <time>2021-05-13T21:31:14.659Z</time>
      </trkpt>
      <trkpt lat="50.49889" lon="3.48551">
        <ele>16.882467</ele>
        <time>2021-05-13T21:31:18.528Z</time>
      </trkpt>
      <trkpt lat="50.49838" lon="3.48467">
        <ele>16.792133</ele>
        <time>2021-05-13T21:31:32.731Z</time>
      </trkpt>
      <trkpt lat="50.49817" lon="3.48414">
        <ele>16.680342</ele>
        <time>2021-05-13T21:31:40.129Z</time>
      </trkpt>
      <trkpt lat="50.49798" lon="3.48218">
        <ele>16.260865</ele>
        <time>2021-05-13T21:32:03.810Z</time>
      </trkpt>
      <trkpt lat="50.49803" lon="3.48133">
        <ele>16.270215</ele>
        <time>2021-05-13T21:32:14.925Z</time>
      </trkpt>
      <trkpt lat="50.4982" lon="3.48069">
        <ele>16.399366</ele>
        <time>2021-05-13T21:32:24.090Z</time>
      </trkpt>
      <trkpt lat="50.4983" lon="3.47978">
        <ele>16.57265</ele>
        <time>2021-05-13T21:32:36.809Z</time>
      </trkpt>
      <trkpt lat="50.49835" lon="3.47879">
        <ele>16.829053</ele>
        <time>2021-05-13T21:32:51.025Z</time>
      </trkpt>
      <trkpt lat="50.49849" lon="3.47803">
        <ele>17.197115</ele>
        <time>2021-05-13T21:33:02.648Z</time>
      </trkpt>
      <trkpt lat="50.49874" lon="3.47645">
        <ele>17.956657</ele>
        <time>2021-05-13T21:33:27.304Z</time>
      </trkpt>
      <trkpt lat="50.49968" lon="3.47269">
        <ele>19.236217</ele>
        <time>2021-05-13T21:34:26.194Z</time>
      </trkpt>
      <trkpt lat="50.49982" lon="3.47188">
        <ele>19.233802</ele>
        <time>2021-05-13T21:34:36.446Z</time>
      </trkpt>
      <trkpt lat="50.49989" lon="3.47148">
        <ele>19.232612</ele>
        <time>2021-05-13T21:34:41.340Z</time>
      </trkpt>
      <trkpt lat="50.50008" lon="3.47058">
        <ele>19.125711</ele>
        <time>2021-05-13T21:34:52.503Z</time>
      </trkpt>
      <trkpt lat="50.50028" lon="3.46994">
        <ele>18.955303</ele>
        <time>2021-05-13T21:35:00.705Z</time>
      </trkpt>
      <trkpt lat="50.50064" lon="3.46894">
        <ele>18.681121</ele>
        <time>2021-05-13T21:35:14.249Z</time>
      </trkpt>
      <trkpt lat="50.50156" lon="3.46691">
        <ele>18.982736</ele>
        <time>2021-05-13T21:35:47.963Z</time>
      </trkpt>
      <trkpt lat="50.50193" lon="3.46613">
        <ele>19.169914</ele>
        <time>2021-05-13T21:36:02.155Z</time>
      </trkpt>
      <trkpt lat="50.50199" lon="3.46601">
        <ele>19.169914</ele>
        <time>2021-05-13T21:36:04.327Z</time>
      </trkpt>
      <trkpt lat="50.50237" lon="3.4654">
        <ele>19.169914</ele>
        <time>2021-05-13T21:36:16.793Z</time>
      </trkpt>
      <trkpt lat="50.5027" lon="3.46488">
        <ele>19.169914</ele>
        <time>2021-05-13T21:36:27.446Z</time>
      </trkpt>
      <trkpt lat="50.503" lon="3.46432">
        <ele>19.169914</ele>
        <time>2021-05-13T21:36:38.320Z</time>
      </trkpt>
      <trkpt lat="50.50313" lon="3.46411">
        <ele>19.169914</ele>
        <time>2021-05-13T21:36:42.517Z</time>
      </trkpt>
      <trkpt lat="50.50317" lon="3.46374">
        <ele>19.169914</ele>
        <time>2021-05-13T21:36:46.459Z</time>
      </trkpt>
      <trkpt lat="50.50325" lon="3.46307">
        <ele>19.169914</ele>
        <time>2021-05-13T21:36:53.235Z</time>
      </trkpt>
    </trkseg>
  </trk>
</gpx>